| time (UTC) | temp C | wind direction | speed KPH | gust KPH | rain 1hr cm | rain 24hr cm | rain mn cm | humidity % | barometer mb |
| 20260510024605 | 18 | 232 | 0.0 | 4.8 | 0.00 | 3.40 | 3.33 | 96 | 1014.2 |
| 20260510024507 | 18 | 232 | 0.0 | 4.8 | 0.00 | 3.40 | 3.33 | 96 | 1014.3 |
| 20260510024403 | 18 | 232 | 0.0 | 4.8 | 0.00 | 3.40 | 3.33 | 96 | 1014.3 |
| 20260510024305 | 18 | 232 | 0.0 | 4.8 | 0.00 | 3.40 | 3.33 | 96 | 1014.3 |
| 20260510024205 | 18 | 232 | 0.0 | 4.8 | 0.00 | 3.40 | 3.33 | 96 | 1014.4 |
| 20260510024104 | 18 | 232 | 0.0 | 4.8 | 0.00 | 3.40 | 3.33 | 96 | 1014.4 |
| 20260510024007 | 18 | 204 | 0.0 | 4.8 | 0.00 | 3.40 | 3.33 | 96 | 1014.4 |
| 20260510023904 | 18 | 158 | 3.2 | 4.8 | 0.00 | 3.40 | 3.33 | 96 | 1014.5 |
| 20260510023805 | 18 | 194 | 3.2 | 4.8 | 0.00 | 3.40 | 3.33 | 96 | 1014.5 |
| 20260510023604 | 18 | 178 | 3.2 | 4.8 | 0.00 | 3.40 | 3.33 | 96 | 1014.6 |
| 20260510023505 | 18 | 184 | 0.0 | 3.2 | 0.00 | 3.40 | 3.33 | 96 | 1014.5 |
| 20260510023405 | 18 | 197 | 1.6 | 3.2 | 0.00 | 3.40 | 3.33 | 96 | 1014.5 |
| 20260510023303 | 18 | 174 | 3.2 | 3.2 | 0.00 | 3.40 | 3.33 | 96 | 1014.6 |
| 20260510023204 | 18 | 179 | 0.0 | 3.2 | 0.00 | 3.40 | 3.33 | 96 | 1014.6 |
| 20260510023105 | 18 | 186 | 0.0 | 0.0 | 0.00 | 3.40 | 3.33 | 96 | 1014.6 |
| 20260510023007 | 18 | 198 | 0.0 | 3.2 | 0.00 | 3.40 | 3.33 | 96 | 1014.5 |
| 20260510022904 | 18 | 181 | 0.0 | 3.2 | 0.00 | 3.40 | 3.33 | 96 | 1014.6 |
| 20260510022804 | 18 | 181 | 0.0 | 4.8 | 0.00 | 3.40 | 3.33 | 96 | 1014.6 |
| 20260510022703 | 18 | 181 | 0.0 | 4.8 | 0.00 | 3.40 | 3.33 | 96 | 1014.5 |
| 20260510022505 | 18 | 181 | 0.0 | 4.8 | 0.00 | 3.40 | 3.33 | 96 | 1014.3 |
| 20260510022404 | 18 | 181 | 0.0 | 4.8 | 0.00 | 3.40 | 3.33 | 96 | 1014.3 |
| 20260510022204 | 18 | 181 | 0.0 | 4.8 | 0.00 | 3.40 | 3.33 | 96 | 1014.3 |
| 20260510022104 | 18 | 181 | 0.0 | 4.8 | 0.00 | 3.40 | 3.33 | 96 | 1014.3 |
| 20260510022007 | 18 | 198 | 1.6 | 4.8 | 0.00 | 3.40 | 3.33 | 96 | 1014.1 |
| 20260510021805 | 18 | 184 | 4.8 | 4.8 | 0.00 | 3.40 | 3.33 | 96 | 1014.1 |
| 20260510021705 | 18 | 165 | 4.8 | 4.8 | 0.00 | 3.40 | 3.33 | 96 | 1014.2 |
| 20260510021604 | 18 | 137 | 3.2 | 4.8 | 0.00 | 3.40 | 3.33 | 96 | 1014.2 |
| 20260510021506 | 18 | 155 | 0.0 | 4.8 | 0.00 | 3.40 | 3.33 | 96 | 1014.2 |
| 20260510021403 | 18 | 165 | 0.0 | 4.8 | 0.00 | 3.40 | 3.33 | 96 | 1014.3 |
| 20260510021303 | 18 | 204 | 3.2 | 4.8 | 0.00 | 3.40 | 3.33 | 96 | 1014.2 |
| 20260510021204 | 18 | 198 | 3.2 | 3.2 | 0.00 | 3.40 | 3.33 | 96 | 1014.2 |
| 20260510021007 | 18 | 183 | 0.0 | 3.2 | 0.00 | 3.40 | 3.33 | 96 | 1014.2 |
| 20260510020904 | 18 | 213 | 0.0 | 3.2 | 0.00 | 3.40 | 3.33 | 96 | 1014.2 |
| 20260510020805 | 18 | 220 | 0.0 | 3.2 | 0.00 | 3.40 | 3.33 | 96 | 1014.2 |
| 20260510020603 | 18 | 213 | 0.0 | 3.2 | 0.00 | 3.40 | 3.33 | 96 | 1014.1 |
| 20260510020506 | 18 | 213 | 0.0 | 3.2 | 0.00 | 3.40 | 3.33 | 96 | 1014.1 |
| 20260510020405 | 18 | 213 | 0.0 | 3.2 | 0.00 | 3.40 | 3.33 | 96 | 1014.2 |
| 20260510020304 | 18 | 204 | 0.0 | 3.2 | 0.00 | 3.40 | 3.33 | 96 | 1014.2 |
| 20260510020203 | 18 | 216 | 0.0 | 3.2 | 0.00 | 3.40 | 3.33 | 96 | 1014.1 |
| 20260510020105 | 18 | 226 | 0.0 | 4.8 | 0.00 | 3.40 | 3.33 | 96 | 1014.2 |
| 20260510020008 | 18 | 246 | 1.6 | 4.8 | 0.00 | 3.43 | 3.33 | 96 | 1014.2 |
| 20260510015902 | 18 | 227 | 0.0 | 4.8 | 0.00 | 3.43 | 3.33 | 96 | 1014.1 |
| 20260510015803 | 18 | 229 | 0.0 | 4.8 | 0.00 | 3.43 | 3.33 | 96 | 1014.1 |
| 20260510015703 | 18 | 226 | 0.0 | 4.8 | 0.00 | 3.43 | 3.33 | 96 | 1014.1 |
| 20260510015604 | 18 | 226 | 0.0 | 4.8 | 0.00 | 3.43 | 3.33 | 96 | 1013.9 |
| 20260510015506 | 18 | 226 | 0.0 | 4.8 | 0.00 | 3.43 | 3.33 | 96 | 1013.9 |
| 20260510015403 | 18 | 245 | 0.0 | 4.8 | 0.00 | 3.43 | 3.33 | 96 | 1014.0 |
| 20260510015306 | 18 | 250 | 1.6 | 4.8 | 0.00 | 3.43 | 3.33 | 96 | 1013.9 |
| 20260510015202 | 18 | 270 | 3.2 | 4.8 | 0.00 | 3.43 | 3.33 | 96 | 1013.9 |
| 20260510015103 | 18 | 247 | 1.6 | 4.8 | 0.00 | 3.43 | 3.33 | 96 | 1013.8 |
| 20260510015007 | 18 | 243 | 0.0 | 3.2 | 0.00 | 3.43 | 3.33 | 96 | 1013.8 |
| 20260510014903 | 18 | 239 | 0.0 | 3.2 | 0.00 | 3.43 | 3.33 | 96 | 1013.7 |
| 20260510014802 | 18 | 238 | 0.0 | 3.2 | 0.00 | 3.43 | 3.33 | 96 | 1013.7 |
| 20260510014702 | 18 | 226 | 0.0 | 3.2 | 0.00 | 3.43 | 3.33 | 96 | 1013.6 |
| 20260510014603 | 18 | 235 | 0.0 | 3.2 | 0.00 | 3.43 | 3.33 | 96 | 1013.6 |
| 20260510014505 | 18 | 235 | 0.0 | 3.2 | 0.00 | 3.43 | 3.33 | 96 | 1013.6 |
| 20260510014203 | 18 | 231 | 0.0 | 3.2 | 0.00 | 3.43 | 3.33 | 96 | 1013.5 |
| 20260510014103 | 18 | 227 | 0.0 | 4.8 | 0.00 | 3.43 | 3.33 | 96 | 1013.5 |
| 20260510014006 | 18 | 235 | 0.0 | 4.8 | 0.00 | 3.43 | 3.33 | 96 | 1013.5 |
| 20260510013902 | 18 | 235 | 0.0 | 4.8 | 0.00 | 3.43 | 3.33 | 96 | 1013.5 |
| 20260510013802 | 18 | 225 | 0.0 | 4.8 | 0.00 | 3.43 | 3.33 | 96 | 1013.5 |
| 20260510013703 | 18 | 228 | 0.0 | 4.8 | 0.00 | 3.43 | 3.33 | 96 | 1013.4 |
| 20260510013603 | 18 | 230 | 0.0 | 4.8 | 0.00 | 3.43 | 3.33 | 96 | 1013.4 |
| 20260510013505 | 18 | 232 | 0.0 | 4.8 | 0.00 | 3.43 | 3.33 | 96 | 1013.4 |
| 20260510013303 | 18 | 251 | 1.6 | 4.8 | 0.00 | 3.43 | 3.33 | 96 | 1013.4 |
| 20260510013203 | 18 | 263 | 3.2 | 3.2 | 0.00 | 3.43 | 3.33 | 96 | 1013.4 |
| 20260510012803 | 18 | 219 | 0.0 | 3.2 | 0.00 | 3.43 | 3.33 | 96 | 1013.2 |
| 20260510012703 | 18 | 214 | 0.0 | 4.8 | 0.00 | 3.43 | 3.33 | 95 | 1013.2 |
| 20260510012603 | 18 | 193 | 0.0 | 4.8 | 0.00 | 3.43 | 3.33 | 96 | 1013.2 |
| 20260510012505 | 18 | 204 | 0.0 | 4.8 | 0.00 | 3.43 | 3.33 | 96 | 1013.2 |
| 20260510012402 | 18 | 183 | 0.0 | 4.8 | 0.00 | 3.43 | 3.33 | 96 | 1013.1 |
| 20260510012306 | 18 | 222 | 0.0 | 4.8 | 0.00 | 3.43 | 3.33 | 96 | 1013.2 |
| 20260510012203 | 18 | 226 | 0.0 | 4.8 | 0.00 | 3.43 | 3.33 | 96 | 1013.2 |
| 20260510012102 | 18 | 216 | 0.0 | 4.8 | 0.00 | 3.43 | 3.33 | 96 | 1013.2 |
| 20260510011902 | 18 | 192 | 0.0 | 4.8 | 0.00 | 3.43 | 3.33 | 96 | 1013.2 |
| 20260510011802 | 18 | 150 | 1.6 | 4.8 | 0.00 | 3.43 | 3.33 | 96 | 1013.2 |
| 20260510011603 | 18 | 209 | 3.2 | 4.8 | 0.00 | 3.43 | 3.33 | 96 | 1013.3 |
| 20260510011506 | 18 | 222 | 3.2 | 4.8 | 0.00 | 3.43 | 3.33 | 96 | 1013.3 |
| 20260510011403 | 18 | 223 | 3.2 | 4.8 | 0.00 | 3.43 | 3.33 | 96 | 1013.2 |
| 20260510011203 | 18 | 227 | 0.0 | 3.2 | 0.00 | 3.43 | 3.33 | 96 | 1013.2 |
| 20260510011103 | 18 | 225 | 0.0 | 3.2 | 0.00 | 3.43 | 3.33 | 96 | 1013.2 |
| 20260510011006 | 18 | 225 | 0.0 | 3.2 | 0.00 | 3.43 | 3.33 | 96 | 1013.2 |
| 20260510010903 | 18 | 198 | 1.6 | 3.2 | 0.00 | 3.43 | 3.33 | 96 | 1013.2 |
| 20260510010803 | 18 | 216 | 0.0 | 3.2 | 0.00 | 3.43 | 3.33 | 96 | 1013.2 |
| 20260510010704 | 18 | 190 | 0.0 | 3.2 | 0.00 | 3.43 | 3.33 | 96 | 1013.2 |
| 20260510010505 | 18 | 164 | 0.0 | 3.2 | 0.00 | 3.43 | 3.33 | 95 | 1013.2 |
| 20260510010303 | 18 | 216 | 0.0 | 3.2 | 0.00 | 3.43 | 3.33 | 95 | 1013.2 |
| 20260510010203 | 18 | 216 | 0.0 | 3.2 | 0.00 | 3.43 | 3.33 | 95 | 1013.3 |
| 20260510010009 | 18 | 219 | 1.6 | 3.2 | 0.00 | 3.43 | 3.33 | 95 | 1013.3 |
| 20260510005903 | 18 | 221 | 0.0 | 4.8 | 0.00 | 3.43 | 3.33 | 95 | 1013.3 |
| 20260510005803 | 18 | 231 | 0.0 | 4.8 | 0.00 | 3.43 | 3.33 | 95 | 1013.3 |
| 20260510005703 | 18 | 236 | 0.0 | 4.8 | 0.00 | 3.43 | 3.33 | 95 | 1013.3 |
| 20260510005603 | 18 | 236 | 0.0 | 4.8 | 0.00 | 3.43 | 3.33 | 95 | 1013.2 |
| 20260510005506 | 18 | 236 | 0.0 | 4.8 | 0.00 | 3.43 | 3.33 | 95 | 1013.2 |
| 20260510005403 | 18 | 230 | 0.0 | 4.8 | 0.00 | 3.43 | 3.33 | 95 | 1013.1 |
| 20260510005306 | 18 | 230 | 0.0 | 4.8 | 0.00 | 3.43 | 3.33 | 95 | 1013.1 |
| 20260510005104 | 18 | 234 | 3.2 | 4.8 | 0.00 | 3.43 | 3.33 | 95 | 1013.1 |
| 20260510005006 | 18 | 246 | 3.2 | 4.8 | 0.00 | 3.43 | 3.33 | 95 | 1013.1 |
| 20260510004903 | 18 | 234 | 1.6 | 3.2 | 0.00 | 3.43 | 3.33 | 95 | 1013.0 |
| 20260510004803 | 18 | 224 | 3.2 | 3.2 | 0.00 | 3.43 | 3.33 | 95 | 1012.9 |
| 20260510004603 | 18 | 237 | 0.0 | 3.2 | 0.00 | 3.43 | 3.33 | 95 | 1012.9 |
| 20260510004506 | 18 | 237 | 0.0 | 3.2 | 0.00 | 3.43 | 3.33 | 95 | 1012.9 |
| 20260510004302 | 18 | 220 | 0.0 | 3.2 | 0.00 | 3.43 | 3.33 | 95 | 1012.8 |
| 20260510004102 | 18 | 209 | 0.0 | 3.2 | 0.00 | 3.43 | 3.33 | 95 | 1012.7 |
| 20260510003903 | 18 | 208 | 0.0 | 3.2 | 0.00 | 3.43 | 3.33 | 95 | 1012.7 |
| 20260510003803 | 18 | 214 | 0.0 | 3.2 | 0.00 | 3.43 | 3.33 | 95 | 1012.7 |
| 20260510003703 | 18 | 146 | 0.0 | 3.2 | 0.00 | 3.43 | 3.33 | 95 | 1012.7 |
| 20260510003603 | 18 | 146 | 0.0 | 3.2 | 0.00 | 3.43 | 3.33 | 95 | 1012.7 |
| 20260510003506 | 18 | 197 | 0.0 | 3.2 | 0.00 | 3.43 | 3.33 | 95 | 1012.7 |
| 20260510003403 | 18 | 173 | 0.0 | 3.2 | 0.00 | 3.43 | 3.33 | 95 | 1012.7 |
| 20260510003303 | 18 | 155 | 0.0 | 3.2 | 0.00 | 3.43 | 3.33 | 95 | 1012.7 |
| 20260510003203 | 18 | 191 | 3.2 | 3.2 | 0.00 | 3.43 | 3.33 | 95 | 1012.6 |
| 20260510003103 | 18 | 205 | 0.0 | 3.2 | 0.00 | 3.43 | 3.33 | 95 | 1012.7 |
| 20260510003006 | 18 | 205 | 0.0 | 3.2 | 0.00 | 3.43 | 3.33 | 95 | 1012.6 |
| 20260510002904 | 18 | 165 | 0.0 | 3.2 | 0.00 | 3.43 | 3.33 | 95 | 1012.7 |
| 20260510002803 | 18 | 174 | 0.0 | 3.2 | 0.00 | 3.43 | 3.33 | 95 | 1012.7 |
| 20260510002703 | 18 | 146 | 0.0 | 3.2 | 0.00 | 3.43 | 3.33 | 95 | 1012.7 |
| 20260510002403 | 18 | 155 | 0.0 | 3.2 | 0.00 | 3.43 | 3.33 | 95 | 1012.5 |
| 20260510002306 | 18 | 155 | 0.0 | 3.2 | 0.00 | 3.43 | 3.33 | 95 | 1012.5 |
| 20260510002203 | 18 | 155 | 0.0 | 3.2 | 0.00 | 3.43 | 3.33 | 95 | 1012.6 |
| 20260510002005 | 18 | 144 | 0.0 | 3.2 | 0.00 | 3.43 | 3.33 | 95 | 1012.6 |
| 20260510001903 | 18 | 160 | 0.0 | 3.2 | 0.00 | 3.43 | 3.33 | 95 | 1012.6 |
| 20260510001803 | 18 | 188 | 0.0 | 3.2 | 0.00 | 3.43 | 3.33 | 95 | 1012.6 |
| 20260510001703 | 18 | 183 | 0.0 | 3.2 | 0.00 | 3.43 | 3.33 | 95 | 1012.6 |
| 20260510001603 | 18 | 153 | 0.0 | 3.2 | 0.00 | 3.43 | 3.33 | 95 | 1012.6 |
| 20260510001506 | 18 | 153 | 0.0 | 3.2 | 0.00 | 3.43 | 3.33 | 95 | 1012.6 |
| 20260510001403 | 18 | 141 | 0.0 | 3.2 | 0.00 | 3.43 | 3.33 | 95 | 1012.5 |
| 20260510001303 | 18 | 134 | 3.2 | 3.2 | 0.00 | 3.43 | 3.33 | 95 | 1012.6 |
| 20260510001203 | 18 | 143 | 0.0 | 1.6 | 0.00 | 3.43 | 3.33 | 95 | 1012.6 |
| 20260510001006 | 18 | 130 | 0.0 | 0.0 | 0.00 | 3.43 | 3.33 | 95 | 1012.7 |
| 20260510000904 | 18 | 259 | 0.0 | 0.0 | 0.00 | 3.43 | 3.33 | 95 | 1012.8 |
| 20260510000703 | 18 | 259 | 0.0 | 0.0 | 0.00 | 3.43 | 3.33 | 95 | 1012.7 |
| 20260510000602 | 18 | 259 | 0.0 | 3.2 | 0.00 | 3.43 | 3.33 | 95 | 1012.7 |
| 20260510000505 | 18 | 259 | 0.0 | 3.2 | 0.00 | 3.43 | 3.33 | 95 | 1012.8 |
| 20260510000403 | 18 | 259 | 0.0 | 3.2 | 0.00 | 3.43 | 3.33 | 95 | 1012.7 |
| 20260510000304 | 18 | 259 | 0.0 | 3.2 | 0.00 | 3.43 | 3.33 | 95 | 1012.7 |
| 20260510000204 | 18 | 259 | 0.0 | 3.2 | 0.00 | 3.43 | 3.33 | 95 | 1012.7 |
| 20260510000103 | 18 | 129 | 0.0 | 3.2 | 0.00 | 3.43 | 3.33 | 95 | 1012.6 |
| 20260510000007 | 18 | 129 | 0.0 | 3.2 | 0.00 | 3.43 | 3.33 | 95 | 1012.6 |
| 20260509235903 | 18 | 129 | 0.0 | 3.2 | 0.00 | 3.43 | 3.33 | 94 | 1012.6 |
| 20260509235803 | 18 | 129 | 0.0 | 3.2 | 0.00 | 3.43 | 3.33 | 94 | 1012.6 |
| 20260509235703 | 19 | 139 | 1.6 | 3.2 | 0.00 | 3.43 | 3.33 | 94 | 1012.6 |
| 20260509235604 | 18 | 173 | 0.0 | 0.0 | 0.00 | 3.43 | 3.33 | 94 | 1012.6 |
| 20260509235506 | 18 | 136 | 0.0 | 0.0 | 0.00 | 3.43 | 3.33 | 94 | 1012.6 |
| 20260509235403 | 19 | 136 | 0.0 | 0.0 | 0.00 | 3.43 | 3.33 | 94 | 1012.6 |
| 20260509235306 | 19 | 136 | 0.0 | 0.0 | 0.00 | 3.43 | 3.33 | 94 | 1012.6 |
| 20260509235203 | 19 | 136 | 0.0 | 0.0 | 0.00 | 3.43 | 3.33 | 94 | 1012.5 |
| 20260509235103 | 19 | 136 | 0.0 | 0.0 | 0.00 | 3.43 | 3.33 | 94 | 1012.5 |
| 20260509235006 | 19 | 136 | 0.0 | 0.0 | 0.00 | 3.43 | 3.33 | 94 | 1012.5 |
| 20260509234902 | 19 | 136 | 0.0 | 0.0 | 0.00 | 3.43 | 3.33 | 94 | 1012.5 |
| 20260509234803 | 18 | 136 | 0.0 | 0.0 | 0.00 | 3.43 | 3.33 | 94 | 1012.5 |
| 20260509234703 | 18 | 136 | 0.0 | 0.0 | 0.00 | 3.43 | 3.33 | 94 | 1012.5 |
| 20260509234505 | 19 | 136 | 0.0 | 0.0 | 0.00 | 3.43 | 3.33 | 94 | 1012.4 |
| 20260509234304 | 19 | 136 | 0.0 | 0.0 | 0.00 | 3.43 | 3.33 | 94 | 1012.5 |
| 20260509234204 | 19 | 136 | 0.0 | 0.0 | 0.00 | 3.43 | 3.33 | 94 | 1012.5 |
| 20260509234006 | 19 | 136 | 0.0 | 0.0 | 0.00 | 3.43 | 3.33 | 94 | 1012.4 |
| 20260509233903 | 19 | 136 | 0.0 | 0.0 | 0.00 | 3.43 | 3.33 | 94 | 1012.4 |
| 20260509233702 | 19 | 136 | 0.0 | 3.2 | 0.00 | 3.43 | 3.33 | 94 | 1012.4 |
| 20260509233602 | 19 | 136 | 0.0 | 4.8 | 0.00 | 3.43 | 3.33 | 94 | 1012.4 |
| 20260509233506 | 19 | 136 | 0.0 | 4.8 | 0.00 | 3.43 | 3.33 | 94 | 1012.3 |
| 20260509233402 | 19 | 136 | 0.0 | 4.8 | 0.00 | 3.43 | 3.33 | 94 | 1012.5 |
| 20260509233303 | 19 | 136 | 0.0 | 4.8 | 0.00 | 3.43 | 3.33 | 94 | 1012.4 |
| 20260509233203 | 19 | 136 | 0.0 | 4.8 | 0.00 | 3.43 | 3.33 | 94 | 1012.4 |
| 20260509233103 | 19 | 136 | 0.0 | 4.8 | 0.00 | 3.43 | 3.33 | 94 | 1012.4 |
| 20260509233006 | 19 | 136 | 0.0 | 4.8 | 0.00 | 3.43 | 3.33 | 94 | 1012.4 |
| 20260509232903 | 19 | 188 | 0.0 | 4.8 | 0.00 | 3.43 | 3.33 | 94 | 1012.4 |
| 20260509232803 | 19 | 188 | 0.0 | 4.8 | 0.00 | 3.43 | 3.33 | 93 | 1012.4 |
| 20260509232603 | 19 | 144 | 3.2 | 3.2 | 0.00 | 3.43 | 3.33 | 93 | 1012.4 |
| 20260509232506 | 19 | 160 | 3.2 | 3.2 | 0.00 | 3.43 | 3.33 | 93 | 1012.4 |
| 20260509232403 | 19 | 203 | 0.0 | 3.2 | 0.00 | 3.43 | 3.33 | 93 | 1012.5 |
| 20260509232306 | 19 | 224 | 3.2 | 3.2 | 0.00 | 3.43 | 3.33 | 93 | 1012.5 |
| 20260509232203 | 19 | 210 | 0.0 | 4.8 | 0.00 | 3.43 | 3.33 | 93 | 1012.5 |
| 20260509232103 | 19 | 225 | 0.0 | 4.8 | 0.00 | 3.43 | 3.33 | 93 | 1012.5 |
| 20260509232007 | 19 | 213 | 0.0 | 4.8 | 0.00 | 3.43 | 3.33 | 93 | 1012.5 |
| 20260509231903 | 19 | 52 | 0.0 | 4.8 | 0.00 | 3.43 | 3.33 | 93 | 1012.5 |
| 20260509231802 | 19 | 173 | 0.0 | 4.8 | 0.00 | 3.43 | 3.33 | 93 | 1012.5 |
| 20260509231702 | 19 | 173 | 0.0 | 4.8 | 0.00 | 3.43 | 3.33 | 93 | 1012.5 |
| 20260509231506 | 19 | 171 | 1.6 | 4.8 | 0.00 | 3.43 | 3.33 | 93 | 1012.5 |
| 20260509231403 | 19 | 167 | 3.2 | 4.8 | 0.00 | 3.43 | 3.33 | 93 | 1012.6 |
| 20260509231302 | 19 | 160 | 3.2 | 4.8 | 0.00 | 3.43 | 3.33 | 93 | 1012.6 |
| 20260509231204 | 19 | 151 | 1.6 | 4.8 | 0.00 | 3.43 | 3.33 | 93 | 1012.6 |
| 20260509231103 | 19 | 188 | 1.6 | 4.8 | 0.00 | 3.43 | 3.33 | 93 | 1012.6 |
| 20260509231006 | 19 | 193 | 1.6 | 4.8 | 0.00 | 3.43 | 3.33 | 93 | 1012.7 |
| 20260509230902 | 19 | 225 | 0.0 | 4.8 | 0.00 | 3.43 | 3.33 | 93 | 1012.7 |
| 20260509230803 | 19 | 223 | 0.0 | 4.8 | 0.00 | 3.43 | 3.33 | 93 | 1012.6 |
| 20260509230703 | 19 | 195 | 0.0 | 4.8 | 0.00 | 3.43 | 3.33 | 93 | 1012.6 |
| 20260509230603 | 19 | 64 | 0.0 | 4.8 | 0.00 | 3.43 | 3.33 | 93 | 1012.7 |
| 20260509230505 | 19 | 146 | 0.0 | 4.8 | 0.00 | 3.43 | 3.33 | 93 | 1012.7 |
| 20260509230402 | 19 | 195 | 0.0 | 3.2 | 0.00 | 3.43 | 3.33 | 93 | 1012.7 |
| 20260509230303 | 19 | 195 | 0.0 | 3.2 | 0.00 | 3.43 | 3.33 | 93 | 1012.7 |
| 20260509230204 | 19 | 142 | 0.0 | 3.2 | 0.00 | 3.43 | 3.33 | 93 | 1012.7 |
| 20260509230103 | 19 | 239 | 0.0 | 3.2 | 0.00 | 3.43 | 3.33 | 93 | 1012.6 |
| 20260509225903 | 19 | 239 | 0.0 | 3.2 | 0.00 | 3.43 | 3.33 | 93 | 1012.7 |
| 20260509225802 | 19 | 236 | 0.0 | 3.2 | 0.00 | 3.43 | 3.33 | 92 | 1012.6 |
| 20260509225703 | 19 | 238 | 0.0 | 3.2 | 0.00 | 3.43 | 3.33 | 92 | 1012.6 |
| 20260509225603 | 19 | 235 | 0.0 | 3.2 | 0.00 | 3.43 | 3.33 | 92 | 1012.5 |
| 20260509225506 | 19 | 242 | 0.0 | 3.2 | 0.00 | 3.43 | 3.33 | 92 | 1012.5 |
| 20260509225403 | 19 | 169 | 0.0 | 3.2 | 0.00 | 3.43 | 3.33 | 92 | 1012.5 |
| 20260509225305 | 19 | 219 | 0.0 | 3.2 | 0.00 | 3.43 | 3.33 | 92 | 1012.5 |
| 20260509225203 | 19 | 219 | 0.0 | 3.2 | 0.00 | 3.43 | 3.33 | 92 | 1012.5 |
| 20260509225103 | 19 | 219 | 0.0 | 3.2 | 0.00 | 3.43 | 3.33 | 92 | 1012.5 |
| 20260509224903 | 19 | 219 | 0.0 | 3.2 | 0.00 | 3.43 | 3.33 | 92 | 1012.4 |
| 20260509224803 | 20 | 219 | 0.0 | 4.8 | 0.00 | 3.43 | 3.33 | 92 | 1012.4 |
| 20260509224703 | 19 | 219 | 0.0 | 4.8 | 0.00 | 3.43 | 3.33 | 92 | 1012.7 |
| 20260509224603 | 20 | 165 | 0.0 | 4.8 | 0.00 | 3.43 | 3.33 | 92 | 1012.3 |
| 20260509224506 | 20 | 142 | 0.0 | 4.8 | 0.00 | 3.43 | 3.33 | 92 | 1012.3 |
| 20260509224402 | 20 | 143 | 0.0 | 4.8 | 0.00 | 3.43 | 3.33 | 92 | 1012.3 |
| 20260509224303 | 19 | 142 | 0.0 | 4.8 | 0.00 | 3.43 | 3.33 | 92 | 1012.2 |
| 20260509224104 | 19 | 143 | 0.0 | 6.4 | 0.00 | 3.43 | 3.33 | 92 | 1012.2 |
| 20260509223703 | 19 | 144 | 1.6 | 6.4 | 0.00 | 3.43 | 3.33 | 92 | 1012.2 |
| 20260509223603 | 20 | 165 | 3.2 | 6.4 | 0.00 | 3.43 | 3.33 | 92 | 1012.2 |
| 20260509223403 | 19 | 129 | 0.0 | 6.4 | 0.00 | 3.43 | 3.33 | 92 | 1012.1 |
| 20260509223303 | 20 | 89 | 4.8 | 6.4 | 0.00 | 3.43 | 3.33 | 92 | 1012.1 |
| 20260509223202 | 20 | 146 | 0.0 | 6.4 | 0.00 | 3.43 | 3.33 | 92 | 1012.2 |
| 20260509223102 | 20 | 33 | 0.0 | 6.4 | 0.03 | 3.43 | 3.33 | 92 | 1012.1 |
| 20260509223007 | 20 | 150 | 0.0 | 6.4 | 0.03 | 3.43 | 3.33 | 92 | 1012.1 |
| 20260509222902 | 20 | 150 | 0.0 | 6.4 | 0.03 | 3.43 | 3.33 | 92 | 1012.0 |
| 20260509222803 | 20 | 356 | 1.6 | 6.4 | 0.03 | 3.43 | 3.33 | 92 | 1012.0 |
| 20260509222703 | 20 | 148 | 0.0 | 6.4 | 0.03 | 3.43 | 3.33 | 92 | 1012.0 |
| 20260509222603 | 20 | 146 | 3.2 | 6.4 | 0.03 | 3.43 | 3.33 | 92 | 1012.0 |
| 20260509222506 | 20 | 134 | 1.6 | 6.4 | 0.03 | 3.43 | 3.33 | 92 | 1012.0 |
| 20260509222403 | 20 | 160 | 1.6 | 6.4 | 0.03 | 3.43 | 3.33 | 92 | 1012.0 |
| 20260509222306 | 20 | 137 | 0.0 | 6.4 | 0.03 | 3.43 | 3.33 | 92 | 1011.9 |
| 20260509222202 | 20 | 81 | 4.8 | 6.4 | 0.03 | 3.43 | 3.33 | 92 | 1011.9 |
| 20260509222103 | 20 | 153 | 0.0 | 6.4 | 0.03 | 3.43 | 3.33 | 92 | 1011.9 |
| 20260509222006 | 20 | 118 | 0.0 | 6.4 | 0.03 | 3.43 | 3.33 | 92 | 1011.9 |
| 20260509221903 | 20 | 27 | 0.0 | 6.4 | 0.03 | 3.43 | 3.33 | 92 | 1011.9 |
| 20260509221803 | 20 | 203 | 0.0 | 6.4 | 0.03 | 3.43 | 3.33 | 92 | 1011.9 |
| 20260509221702 | 20 | 70 | 1.6 | 6.4 | 0.03 | 3.43 | 3.33 | 92 | 1011.9 |
| 20260509221603 | 20 | 105 | 0.0 | 6.4 | 0.03 | 3.43 | 3.33 | 92 | 1011.9 |
| 20260509221506 | 20 | 67 | 0.0 | 6.4 | 0.03 | 3.43 | 3.33 | 92 | 1011.9 |
| 20260509221302 | 20 | 72 | 4.8 | 6.4 | 0.03 | 3.43 | 3.33 | 92 | 1011.9 |
| 20260509221202 | 20 | 108 | 6.4 | 6.4 | 0.03 | 3.43 | 3.33 | 92 | 1011.9 |
| 20260509221006 | 20 | 129 | 0.0 | 4.8 | 0.03 | 3.43 | 3.33 | 92 | 1011.8 |
| 20260509220903 | 20 | 130 | 0.0 | 4.8 | 0.03 | 3.43 | 3.33 | 92 | 1011.9 |
| 20260509220803 | 20 | 221 | 0.0 | 4.8 | 0.03 | 3.43 | 3.33 | 92 | 1011.9 |
| 20260509220704 | 20 | 107 | 0.0 | 4.8 | 0.03 | 3.43 | 3.33 | 93 | 1011.9 |
| 20260509220604 | 20 | 34 | 0.0 | 4.8 | 0.03 | 3.43 | 3.33 | 93 | 1011.9 |
| 20260509220505 | 20 | 333 | 0.0 | 4.8 | 0.03 | 3.43 | 3.33 | 93 | 1011.9 |
| 20260509220402 | 19 | 123 | 0.0 | 4.8 | 0.03 | 3.43 | 3.33 | 93 | 1011.8 |
| 20260509220302 | 20 | 115 | 0.0 | 4.8 | 0.03 | 3.43 | 3.33 | 93 | 1011.7 |
| 20260509220104 | 20 | 146 | 1.6 | 4.8 | 0.03 | 3.43 | 3.33 | 93 | 1011.8 |
| 20260509220008 | 20 | 139 | 0.0 | 4.8 | 0.03 | 3.43 | 3.33 | 93 | 1011.8 |
| 20260509215903 | 20 | 195 | 0.0 | 4.8 | 0.03 | 3.66 | 3.33 | 93 | 1011.8 |
| 20260509215803 | 19 | 160 | 0.0 | 4.8 | 0.03 | 3.66 | 3.33 | 93 | 1011.8 |
| 20260509215702 | 19 | 137 | 3.2 | 4.8 | 0.03 | 3.66 | 3.33 | 93 | 1011.8 |
| 20260509215603 | 19 | 311 | 0.0 | 4.8 | 0.03 | 3.66 | 3.33 | 93 | 1011.8 |
| 20260509215505 | 19 | 136 | 0.0 | 4.8 | 0.03 | 3.66 | 3.33 | 93 | 1011.8 |
| 20260509215403 | 19 | 32 | 0.0 | 3.2 | 0.03 | 3.66 | 3.33 | 93 | 1011.8 |
| 20260509215203 | 19 | 69 | 0.0 | 3.2 | 0.03 | 3.66 | 3.33 | 93 | 1011.9 |
| 20260509214902 | 19 | 206 | 0.0 | 1.6 | 0.03 | 3.66 | 3.33 | 93 | 1012.0 |
| 20260509214803 | 19 | 206 | 0.0 | 4.8 | 0.03 | 3.66 | 3.33 | 93 | 1012.0 |
| 20260509214603 | 19 | 146 | 0.0 | 4.8 | 0.03 | 3.66 | 3.33 | 93 | 1012.0 |
| 20260509214506 | 19 | 233 | 0.0 | 4.8 | 0.03 | 3.66 | 3.33 | 94 | 1012.0 |
| 20260509214403 | 19 | 233 | 0.0 | 6.4 | 0.03 | 3.66 | 3.33 | 94 | 1012.0 |
| 20260509214302 | 19 | 233 | 0.0 | 6.4 | 0.03 | 3.66 | 3.33 | 94 | 1011.9 |
| 20260509214204 | 19 | 233 | 0.0 | 6.4 | 0.03 | 3.66 | 3.33 | 94 | 1011.9 |
| 20260509214104 | 19 | 319 | 0.0 | 6.4 | 0.03 | 3.66 | 3.33 | 94 | 1012.0 |
| 20260509214006 | 19 | 319 | 0.0 | 6.4 | 0.03 | 3.66 | 3.33 | 94 | 1012.0 |
| 20260509213903 | 19 | 314 | 0.0 | 6.4 | 0.03 | 3.66 | 3.33 | 94 | 1011.9 |
| 20260509213804 | 19 | 302 | 3.2 | 6.4 | 0.03 | 3.66 | 3.33 | 94 | 1011.9 |
| 20260509213703 | 19 | 304 | 1.6 | 6.4 | 0.03 | 3.66 | 3.33 | 94 | 1011.9 |
| 20260509213604 | 19 | 312 | 3.2 | 6.4 | 0.03 | 3.66 | 3.33 | 94 | 1011.8 |
| 20260509213402 | 19 | 314 | 3.2 | 6.4 | 0.03 | 3.66 | 3.33 | 94 | 1011.9 |
| 20260509213303 | 19 | 342 | 4.8 | 6.4 | 0.03 | 3.66 | 3.33 | 94 | 1011.9 |
| 20260509213203 | 19 | 314 | 4.8 | 6.4 | 0.03 | 3.66 | 3.33 | 94 | 1011.8 |
| 20260509213006 | 19 | 314 | 3.2 | 4.8 | 0.00 | 3.63 | 3.30 | 94 | 1011.8 |
| 20260509212803 | 19 | 304 | 0.0 | 4.8 | 0.00 | 3.63 | 3.30 | 94 | 1011.6 |
| 20260509212602 | 19 | 319 | 3.2 | 4.8 | 0.00 | 3.63 | 3.30 | 95 | 1011.6 |
| 20260509212505 | 19 | 293 | 0.0 | 4.8 | 0.00 | 3.63 | 3.30 | 95 | 1011.6 |
| 20260509212403 | 19 | 333 | 1.6 | 4.8 | 0.00 | 3.63 | 3.30 | 95 | 1011.6 |
| 20260509212203 | 19 | 333 | 0.0 | 4.8 | 0.00 | 3.63 | 3.30 | 95 | 1011.7 |
| 20260509212006 | 19 | 255 | 3.2 | 4.8 | 0.00 | 3.63 | 3.30 | 95 | 1011.7 |
| 20260509211903 | 19 | 304 | 0.0 | 4.8 | 0.00 | 3.63 | 3.30 | 95 | 1011.7 |
| 20260509211603 | 19 | 272 | 0.0 | 4.8 | 0.00 | 3.63 | 3.30 | 95 | 1011.6 |
| 20260509211506 | 19 | 294 | 0.0 | 4.8 | 0.00 | 3.63 | 3.30 | 95 | 1011.6 |
| 20260509211404 | 19 | 295 | 3.2 | 4.8 | 0.00 | 3.63 | 3.30 | 95 | 1011.6 |
| 20260509211303 | 19 | 265 | 0.0 | 4.8 | 0.00 | 3.63 | 3.30 | 95 | 1011.5 |
| 20260509211204 | 19 | 288 | 1.6 | 4.8 | 0.00 | 3.63 | 3.30 | 95 | 1011.6 |
| 20260509211103 | 19 | 263 | 4.8 | 4.8 | 0.00 | 3.63 | 3.30 | 95 | 1011.5 |
| 20260509211007 | 19 | 302 | 3.2 | 4.8 | 0.00 | 3.63 | 3.30 | 95 | 1011.5 |
| 20260509210903 | 19 | 295 | 3.2 | 4.8 | 0.00 | 3.63 | 3.30 | 95 | 1011.5 |
| 20260509210803 | 19 | 282 | 0.0 | 6.4 | 0.00 | 3.63 | 3.30 | 95 | 1011.5 |
| 20260509210703 | 19 | 301 | 3.2 | 6.4 | 0.00 | 3.63 | 3.30 | 95 | 1011.5 |
| 20260509210203 | 18 | 307 | 3.2 | 6.4 | 0.00 | 3.63 | 3.30 | 95 | 1011.5 |
| 20260509210103 | 18 | 303 | 0.0 | 6.4 | 0.00 | 3.63 | 3.30 | 95 | 1011.4 |
| 20260509210007 | 18 | 277 | 0.0 | 6.4 | 0.00 | 3.63 | 3.30 | 95 | 1011.4 |
| 20260509205903 | 18 | 272 | 3.2 | 6.4 | 0.00 | 3.91 | 3.30 | 95 | 1011.3 |
| 20260509205802 | 18 | 291 | 0.0 | 6.4 | 0.00 | 3.91 | 3.30 | 95 | 1011.3 |
| 20260509205703 | 18 | 173 | 0.0 | 6.4 | 0.00 | 3.91 | 3.30 | 95 | 1011.4 |
| 20260509205602 | 19 | 53 | 0.0 | 6.4 | 0.00 | 3.91 | 3.30 | 95 | 1011.3 |
| 20260509205506 | 18 | 53 | 0.0 | 6.4 | 0.00 | 3.91 | 3.30 | 95 | 1011.3 |
| 20260509205404 | 18 | 254 | 3.2 | 6.4 | 0.00 | 3.91 | 3.30 | 95 | 1011.2 |
| 20260509205306 | 18 | 235 | 0.0 | 6.4 | 0.00 | 3.91 | 3.30 | 95 | 1011.1 |
| 20260509205203 | 18 | 227 | 0.0 | 6.4 | 0.00 | 3.91 | 3.30 | 95 | 1011.2 |
| 20260509205103 | 18 | 186 | 1.6 | 8.0 | 0.00 | 3.91 | 3.30 | 95 | 1011.2 |
| 20260509205007 | 18 | 141 | 1.6 | 8.0 | 0.00 | 3.91 | 3.30 | 95 | 1011.1 |
| 20260509204903 | 18 | 202 | 0.0 | 8.0 | 0.00 | 3.91 | 3.30 | 95 | 1011.1 |
| 20260509204802 | 18 | 203 | 0.0 | 8.0 | 0.00 | 3.91 | 3.30 | 95 | 1011.0 |
| 20260509204703 | 18 | 203 | 0.0 | 8.0 | 0.00 | 3.91 | 3.30 | 95 | 1011.0 |
| 20260509204603 | 18 | 247 | 4.8 | 8.0 | 0.00 | 3.91 | 3.30 | 95 | 1011.0 |
| 20260509204506 | 18 | 115 | 0.0 | 8.0 | 0.00 | 3.91 | 3.30 | 95 | 1011.0 |
| 20260509204403 | 18 | 118 | 4.8 | 8.0 | 0.00 | 3.91 | 3.30 | 95 | 1011.0 |
| 20260509204303 | 18 | 143 | 6.4 | 8.0 | 0.00 | 3.91 | 3.30 | 95 | 1011.0 |
| 20260509204103 | 18 | 164 | 3.2 | 8.0 | 0.00 | 3.91 | 3.30 | 95 | 1011.0 |
| 20260509204007 | 18 | 153 | 3.2 | 8.0 | 0.00 | 3.91 | 3.30 | 95 | 1011.0 |
| 20260509203904 | 18 | 165 | 3.2 | 8.0 | 0.00 | 3.91 | 3.30 | 95 | 1011.1 |
| 20260509203803 | 18 | 236 | 0.0 | 8.0 | 0.00 | 3.91 | 3.30 | 95 | 1011.0 |
| 20260509203703 | 18 | 176 | 0.0 | 8.0 | 0.00 | 3.91 | 3.30 | 95 | 1011.0 |
| 20260509203604 | 18 | 230 | 0.0 | 8.0 | 0.00 | 3.91 | 3.30 | 95 | 1011.0 |
| 20260509203506 | 18 | 232 | 0.0 | 6.4 | 0.00 | 3.91 | 3.30 | 95 | 1010.9 |
| 20260509203402 | 18 | 184 | 1.6 | 6.4 | 0.00 | 3.91 | 3.30 | 95 | 1010.9 |
| 20260509203304 | 18 | 158 | 0.0 | 6.4 | 0.00 | 3.91 | 3.30 | 95 | 1010.9 |
| 20260509203204 | 18 | 194 | 0.0 | 6.4 | 0.00 | 3.91 | 3.30 | 95 | 1010.8 |
| 20260509203102 | 18 | 181 | 1.6 | 6.4 | 0.00 | 3.91 | 3.30 | 96 | 1010.8 |
| 20260509203007 | 18 | 264 | 0.0 | 6.4 | 0.00 | 3.91 | 3.30 | 96 | 1010.8 |
| 20260509202904 | 18 | 213 | 0.0 | 6.4 | 0.00 | 3.91 | 3.30 | 96 | 1010.7 |
| 20260509202803 | 18 | 124 | 1.6 | 6.4 | 0.00 | 3.91 | 3.30 | 96 | 1010.7 |
| 20260509202703 | 18 | 184 | 3.2 | 6.4 | 0.00 | 3.91 | 3.30 | 96 | 1010.7 |
| 20260509202602 | 18 | 94 | 0.0 | 6.4 | 0.00 | 3.91 | 3.30 | 96 | 1010.8 |
| 20260509202505 | 18 | 210 | 0.0 | 6.4 | 0.00 | 3.91 | 3.30 | 96 | 1010.8 |
| 20260509202405 | 18 | 141 | 0.0 | 6.4 | 0.00 | 3.91 | 3.30 | 96 | 1010.8 |
| 20260509202306 | 18 | 114 | 0.0 | 6.4 | 0.00 | 3.91 | 3.30 | 96 | 1010.9 |
| 20260509202202 | 18 | 43 | 0.0 | 6.4 | 0.00 | 3.91 | 3.30 | 96 | 1011.0 |
| 20260509202102 | 18 | 124 | 4.8 | 6.4 | 0.00 | 3.91 | 3.30 | 96 | 1010.9 |
| 20260509202007 | 18 | 160 | 0.0 | 6.4 | 0.00 | 3.91 | 3.30 | 96 | 1010.9 |
| 20260509201902 | 18 | 206 | 0.0 | 6.4 | 0.00 | 3.91 | 3.30 | 96 | 1011.1 |
| 20260509201702 | 18 | 206 | 0.0 | 6.4 | 0.00 | 3.91 | 3.30 | 96 | 1011.0 |
| 20260509201602 | 18 | 283 | 0.0 | 6.4 | 0.00 | 3.91 | 3.30 | 96 | 1011.1 |
| 20260509201506 | 18 | 282 | 0.0 | 6.4 | 0.00 | 3.91 | 3.30 | 96 | 1011.1 |
| 20260509201403 | 18 | 132 | 3.2 | 6.4 | 0.00 | 3.91 | 3.30 | 96 | 1011.0 |
| 20260509201303 | 18 | 158 | 0.0 | 8.0 | 0.00 | 3.91 | 3.30 | 96 | 1011.0 |
| 20260509201203 | 18 | 146 | 1.6 | 8.0 | 0.00 | 3.91 | 3.30 | 96 | 1011.0 |
| 20260509201006 | 18 | 167 | 0.0 | 8.0 | 0.00 | 3.91 | 3.30 | 96 | 1011.1 |
| 20260509200903 | 18 | 218 | 0.0 | 8.0 | 0.00 | 3.91 | 3.30 | 96 | 1011.1 |
| 20260509200802 | 18 | 99 | 4.8 | 9.7 | 0.00 | 3.91 | 3.30 | 96 | 1011.2 |
| 20260509200703 | 18 | 64 | 1.6 | 9.7 | 0.00 | 3.91 | 3.30 | 96 | 1011.1 |
| 20260509200604 | 18 | 237 | 0.0 | 9.7 | 0.00 | 3.91 | 3.30 | 96 | 1011.2 |
| 20260509200509 | 18 | 212 | 0.0 | 9.7 | 0.00 | 3.91 | 3.30 | 96 | 1011.2 |
| 20260509200302 | 18 | 169 | 6.4 | 9.7 | 0.00 | 3.91 | 3.30 | 96 | 1011.3 |
| 20260509200202 | 18 | 84 | 0.0 | 9.7 | 0.00 | 3.91 | 3.30 | 96 | 1011.3 |
| 20260509200104 | 18 | 165 | 4.8 | 9.7 | 0.00 | 3.91 | 3.30 | 96 | 1011.4 |
| 20260509200006 | 18 | 54 | 4.8 | 9.7 | 0.00 | 3.91 | 3.30 | 96 | 1011.4 |
| 20260509195803 | 18 | 181 | 4.8 | 8.0 | 0.00 | 3.96 | 3.30 | 96 | 1011.5 |
| 20260509195603 | 18 | 144 | 3.2 | 9.7 | 0.00 | 3.96 | 3.30 | 96 | 1011.6 |
| 20260509195506 | 18 | 134 | 4.8 | 9.7 | 0.00 | 3.96 | 3.30 | 96 | 1011.6 |
| 20260509195403 | 18 | 115 | 4.8 | 9.7 | 0.00 | 3.96 | 3.30 | 96 | 1011.6 |
| 20260509195202 | 18 | 139 | 1.6 | 9.7 | 0.00 | 3.96 | 3.30 | 96 | 1011.8 |
| 20260509195103 | 18 | 139 | 4.8 | 9.7 | 0.00 | 3.96 | 3.30 | 96 | 1011.9 |
| 20260509195008 | 18 | 127 | 1.6 | 9.7 | 0.00 | 3.96 | 3.30 | 96 | 1011.9 |
| 20260509194903 | 18 | 129 | 3.2 | 9.7 | 0.00 | 3.96 | 3.30 | 96 | 1012.0 |
| 20260509194803 | 18 | 131 | 8.0 | 9.7 | 0.00 | 3.96 | 3.30 | 96 | 1012.1 |
| 20260509194703 | 18 | 142 | 4.8 | 6.4 | 0.00 | 3.96 | 3.30 | 96 | 1012.2 |
| 20260509194602 | 18 | 131 | 0.0 | 6.4 | 0.00 | 3.96 | 3.30 | 96 | 1012.2 |
| 20260509194506 | 18 | 143 | 0.0 | 6.4 | 0.00 | 3.96 | 3.30 | 96 | 1012.2 |
| 20260509194404 | 18 | 158 | 1.6 | 6.4 | 0.00 | 3.96 | 3.30 | 96 | 1012.2 |
| 20260509194303 | 18 | 188 | 0.0 | 6.4 | 0.00 | 3.96 | 3.30 | 96 | 1012.3 |
| 20260509194203 | 18 | 30 | 0.0 | 6.4 | 0.00 | 3.96 | 3.30 | 96 | 1012.2 |
| 20260509194101 | 18 | 142 | 0.0 | 6.4 | 0.00 | 3.96 | 3.30 | 96 | 1012.3 |
| 20260509194006 | 18 | 108 | 0.0 | 6.4 | 0.00 | 3.96 | 3.30 | 96 | 1012.3 |
| 20260509193903 | 18 | 139 | 3.2 | 6.4 | 0.00 | 3.96 | 3.30 | 96 | 1012.3 |
| 20260509193803 | 18 | 142 | 1.6 | 6.4 | 0.00 | 3.96 | 3.30 | 96 | 1012.2 |
| 20260509193703 | 18 | 139 | 0.0 | 6.4 | 0.00 | 3.96 | 3.30 | 96 | 1012.4 |
| 20260509193505 | 18 | 148 | 3.2 | 6.4 | 0.00 | 3.96 | 3.30 | 96 | 1012.4 |
| 20260509193403 | 18 | 221 | 0.0 | 6.4 | 0.00 | 3.96 | 3.30 | 96 | 1012.4 |
| 20260509193303 | 18 | 124 | 0.0 | 6.4 | 0.00 | 3.96 | 3.30 | 96 | 1012.3 |
| 20260509193204 | 18 | 141 | 1.6 | 8.0 | 0.00 | 3.96 | 3.30 | 96 | 1012.2 |
| 20260509193103 | 18 | 150 | 0.0 | 8.0 | 0.00 | 3.96 | 3.30 | 96 | 1012.3 |
| 20260509193006 | 18 | 192 | 3.2 | 8.0 | 0.00 | 3.96 | 3.30 | 96 | 1012.2 |
| 20260509192903 | 18 | 144 | 0.0 | 8.0 | 0.00 | 3.96 | 3.30 | 96 | 1012.3 |
| 20260509192802 | 18 | 176 | 0.0 | 8.0 | 0.00 | 3.96 | 3.30 | 96 | 1012.3 |
| 20260509192702 | 18 | 360 | 4.8 | 8.0 | 0.00 | 3.96 | 3.30 | 96 | 1012.3 |
| 20260509192603 | 18 | 304 | 0.0 | 8.0 | 0.00 | 3.96 | 3.30 | 96 | 1012.3 |
| 20260509192305 | 18 | 118 | 6.4 | 8.0 | 0.00 | 3.96 | 3.30 | 96 | 1012.3 |
| 20260509192202 | 18 | 155 | 0.0 | 8.0 | 0.00 | 3.96 | 3.30 | 96 | 1012.2 |
| 20260509192104 | 18 | 68 | 4.8 | 8.0 | 0.00 | 3.96 | 3.30 | 96 | 1012.2 |
| 20260509192006 | 18 | 129 | 3.2 | 8.0 | 0.00 | 3.96 | 3.30 | 96 | 1012.3 |
| 20260509191904 | 18 | 77 | 3.2 | 8.0 | 0.00 | 3.96 | 3.30 | 96 | 1012.2 |
| 20260509191703 | 18 | 113 | 0.0 | 8.0 | 0.00 | 3.96 | 3.30 | 97 | 1012.3 |
| 20260509191603 | 18 | 155 | 0.0 | 8.0 | 0.00 | 3.96 | 3.30 | 97 | 1012.4 |
| 20260509191506 | 18 | 201 | 3.2 | 8.0 | 0.00 | 3.96 | 3.30 | 96 | 1012.4 |
| 20260509191404 | 18 | 323 | 0.0 | 8.0 | 0.00 | 3.96 | 3.30 | 97 | 1012.3 |
| 20260509191302 | 18 | 143 | 1.6 | 9.7 | 0.00 | 3.96 | 3.30 | 97 | 1012.4 |
| 20260509191204 | 18 | 105 | 0.0 | 9.7 | 0.00 | 3.96 | 3.30 | 97 | 1012.4 |
| 20260509191103 | 18 | 85 | 0.0 | 9.7 | 0.00 | 3.96 | 3.30 | 97 | 1012.3 |
| 20260509191006 | 18 | 143 | 6.4 | 9.7 | 0.00 | 3.96 | 3.30 | 97 | 1012.3 |
| 20260509190802 | 18 | 89 | 3.2 | 9.7 | 0.00 | 3.96 | 3.30 | 97 | 1012.5 |
| 20260509190703 | 18 | 125 | 3.2 | 9.7 | 0.00 | 3.96 | 3.30 | 97 | 1012.6 |
| 20260509190604 | 18 | 6 | 0.0 | 9.7 | 0.00 | 3.96 | 3.30 | 96 | 1012.6 |
| 20260509190505 | 18 | 130 | 4.8 | 9.7 | 0.00 | 3.96 | 3.30 | 97 | 1012.6 |
| 20260509190404 | 18 | 319 | 1.6 | 9.7 | 0.00 | 3.96 | 3.30 | 97 | 1012.6 |
| 20260509190303 | 18 | 188 | 3.2 | 8.0 | 0.00 | 3.96 | 3.30 | 97 | 1012.7 |
| 20260509190008 | 18 | 134 | 4.8 | 8.0 | 0.00 | 3.96 | 3.30 | 97 | 1012.8 |
| 20260509185902 | 18 | 70 | 4.8 | 8.0 | 0.00 | 3.96 | 3.30 | 97 | 1012.8 |
| 20260509185702 | 18 | 203 | 4.8 | 8.0 | 0.00 | 3.96 | 3.30 | 97 | 1012.9 |
| 20260509185604 | 18 | 135 | 6.4 | 8.0 | 0.00 | 3.96 | 3.30 | 97 | 1012.8 |
| 20260509185506 | 18 | 114 | 1.6 | 8.0 | 0.00 | 3.96 | 3.30 | 97 | 1012.8 |
| 20260509185404 | 18 | 181 | 1.6 | 8.0 | 0.03 | 3.96 | 3.30 | 97 | 1012.6 |
| 20260509185306 | 18 | 186 | 3.2 | 8.0 | 0.03 | 3.96 | 3.30 | 97 | 1012.5 |
| 20260509185203 | 18 | 220 | 3.2 | 8.0 | 0.03 | 3.96 | 3.30 | 97 | 1012.5 |
| 20260509185103 | 18 | 65 | 4.8 | 8.0 | 0.03 | 3.96 | 3.30 | 97 | 1012.5 |
| 20260509185007 | 18 | 192 | 3.2 | 8.0 | 0.03 | 3.96 | 3.30 | 97 | 1012.5 |
| 20260509184902 | 18 | 106 | 1.6 | 6.4 | 0.03 | 3.96 | 3.30 | 97 | 1012.5 |
| 20260509184803 | 18 | 124 | 0.0 | 6.4 | 0.03 | 3.96 | 3.30 | 97 | 1012.6 |
| 20260509184702 | 18 | 47 | 3.2 | 8.0 | 0.03 | 3.96 | 3.30 | 97 | 1012.6 |
| 20260509184506 | 18 | 137 | 0.0 | 8.0 | 0.03 | 3.96 | 3.30 | 97 | 1012.7 |
| 20260509184403 | 18 | 160 | 3.2 | 8.0 | 0.03 | 3.96 | 3.30 | 97 | 1012.8 |
| 20260509184303 | 18 | 181 | 1.6 | 8.0 | 0.03 | 3.96 | 3.30 | 97 | 1012.8 |
| 20260509184203 | 18 | 162 | 4.8 | 8.0 | 0.05 | 3.96 | 3.30 | 96 | 1013.0 |
| 20260509184103 | 18 | 243 | 3.2 | 8.0 | 0.05 | 3.96 | 3.30 | 97 | 1013.1 |
| 20260509184007 | 18 | 185 | 4.8 | 8.0 | 0.05 | 3.96 | 3.30 | 97 | 1013.1 |
| 20260509183804 | 18 | 203 | 3.2 | 8.0 | 0.08 | 3.96 | 3.30 | 96 | 1013.1 |
| 20260509183702 | 18 | 169 | 4.8 | 8.0 | 0.08 | 3.96 | 3.30 | 97 | 1013.1 |
| 20260509183507 | 18 | 194 | 4.8 | 9.7 | 0.08 | 3.96 | 3.30 | 97 | 1013.0 |
| 20260509183303 | 18 | 225 | 0.0 | 9.7 | 0.08 | 3.96 | 3.30 | 97 | 1013.1 |
| 20260509183102 | 18 | 169 | 0.0 | 9.7 | 0.08 | 3.96 | 3.30 | 96 | 1013.0 |
| 20260509183007 | 18 | 293 | 0.0 | 9.7 | 0.08 | 3.96 | 3.30 | 96 | 1013.0 |
| 20260509182902 | 17 | 204 | 0.0 | 9.7 | 0.08 | 3.96 | 3.30 | 96 | 1013.0 |
| 20260509182704 | 18 | 186 | 1.6 | 9.7 | 0.08 | 3.96 | 3.30 | 96 | 1013.1 |
| 20260509182603 | 18 | 179 | 6.4 | 9.7 | 0.10 | 3.96 | 3.30 | 97 | 1013.2 |
| 20260509182506 | 18 | 233 | 0.0 | 9.7 | 0.10 | 3.96 | 3.30 | 97 | 1013.3 |
| 20260509182403 | 18 | 143 | 6.4 | 9.7 | 0.13 | 3.96 | 3.30 | 97 | 1013.3 |
| 20260509182306 | 18 | 219 | 3.2 | 9.7 | 0.13 | 3.96 | 3.30 | 97 | 1013.3 |
| 20260509182203 | 18 | 203 | 4.8 | 9.7 | 0.13 | 3.96 | 3.30 | 96 | 1013.3 |
| 20260509182103 | 18 | 198 | 4.8 | 9.7 | 0.13 | 3.96 | 3.30 | 97 | 1013.4 |
| 20260509182006 | 18 | 155 | 6.4 | 9.7 | 0.13 | 3.96 | 3.30 | 97 | 1013.5 |
| 20260509181903 | 18 | 139 | 4.8 | 9.7 | 0.13 | 3.96 | 3.30 | 97 | 1013.5 |
| 20260509181802 | 18 | 208 | 3.2 | 9.7 | 0.13 | 3.96 | 3.30 | 96 | 1013.5 |
| 20260509181703 | 18 | 105 | 4.8 | 9.7 | 0.13 | 3.96 | 3.30 | 96 | 1013.4 |
| 20260509181603 | 18 | 211 | 3.2 | 9.7 | 0.13 | 3.96 | 3.30 | 96 | 1013.3 |
| 20260509181506 | 18 | 155 | 6.4 | 9.7 | 0.13 | 3.96 | 3.30 | 96 | 1013.4 |
| 20260509181402 | 18 | 150 | 6.4 | 11.3 | 0.13 | 3.96 | 3.30 | 97 | 1013.3 |
| 20260509181203 | 18 | 184 | 3.2 | 11.3 | 0.13 | 3.96 | 3.30 | 97 | 1013.5 |
| 20260509181103 | 18 | 203 | 1.6 | 11.3 | 0.13 | 3.96 | 3.30 | 97 | 1013.5 |
| 20260509181006 | 18 | 167 | 3.2 | 11.3 | 0.13 | 3.96 | 3.30 | 97 | 1013.4 |
| 20260509180903 | 18 | 153 | 0.0 | 11.3 | 0.13 | 3.96 | 3.30 | 97 | 1013.5 |
| 20260509180803 | 18 | 107 | 3.2 | 11.3 | 0.13 | 3.96 | 3.30 | 97 | 1013.6 |
| 20260509180603 | 18 | 167 | 0.0 | 11.3 | 0.15 | 3.96 | 3.30 | 97 | 1013.6 |
| 20260509180403 | 18 | 172 | 4.8 | 11.3 | 0.15 | 3.96 | 3.30 | 97 | 1013.5 |
| 20260509180204 | 18 | 201 | 4.8 | 11.3 | 0.15 | 3.96 | 3.30 | 97 | 1013.4 |
| 20260509180104 | 18 | 202 | 3.2 | 11.3 | 0.15 | 3.96 | 3.30 | 97 | 1013.4 |
| 20260509180007 | 18 | 151 | 6.4 | 11.3 | 0.15 | 3.96 | 3.30 | 97 | 1013.4 |
| 20260509175904 | 18 | 153 | 3.2 | 11.3 | 0.15 | 3.96 | 3.30 | 97 | 1013.2 |
| 20260509175804 | 18 | 146 | 3.2 | 11.3 | 0.15 | 3.96 | 3.30 | 97 | 1013.2 |
| 20260509175703 | 18 | 150 | 6.4 | 11.3 | 0.18 | 3.96 | 3.30 | 97 | 1013.2 |
| 20260509175603 | 18 | 167 | 6.4 | 11.3 | 0.18 | 3.96 | 3.30 | 97 | 1013.2 |
| 20260509175403 | 18 | 155 | 6.4 | 11.3 | 0.18 | 3.94 | 3.28 | 97 | 1013.2 |
| 20260509175306 | 18 | 142 | 9.7 | 11.3 | 0.18 | 3.94 | 3.28 | 97 | 1013.3 |
| 20260509175202 | 18 | 150 | 6.4 | 9.7 | 0.18 | 3.94 | 3.28 | 97 | 1013.3 |
| 20260509175103 | 18 | 150 | 6.4 | 9.7 | 0.18 | 3.94 | 3.28 | 97 | 1013.5 |
| 20260509175006 | 18 | 157 | 8.0 | 9.7 | 0.18 | 3.94 | 3.28 | 97 | 1013.5 |
| 20260509174903 | 18 | 141 | 4.8 | 9.7 | 0.20 | 3.94 | 3.28 | 97 | 1013.5 |
| 20260509174802 | 18 | 155 | 3.2 | 9.7 | 0.20 | 3.94 | 3.28 | 97 | 1013.6 |
| 20260509174703 | 18 | 191 | 3.2 | 9.7 | 0.20 | 3.94 | 3.28 | 97 | 1013.7 |
| 20260509174603 | 18 | 164 | 4.8 | 9.7 | 0.20 | 3.94 | 3.28 | 97 | 1013.8 |
| 20260509174505 | 18 | 188 | 6.4 | 9.7 | 0.20 | 3.94 | 3.28 | 97 | 1013.8 |
| 20260509174403 | 18 | 158 | 4.8 | 8.0 | 0.20 | 3.94 | 3.28 | 97 | 1013.8 |
| 20260509174303 | 18 | 150 | 6.4 | 8.0 | 0.20 | 3.94 | 3.28 | 97 | 1014.0 |
| 20260509174202 | 18 | 162 | 3.2 | 8.0 | 0.20 | 3.91 | 3.25 | 97 | 1013.9 |
| 20260509173902 | 18 | 179 | 0.0 | 6.4 | 0.18 | 3.89 | 3.23 | 97 | 1014.1 |
| 20260509173803 | 18 | 186 | 4.8 | 6.4 | 0.18 | 3.89 | 3.23 | 97 | 1014.1 |
| 20260509173702 | 18 | 166 | 0.0 | 6.4 | 0.18 | 3.89 | 3.23 | 97 | 1014.1 |
| 20260509173603 | 18 | 195 | 1.6 | 6.4 | 0.20 | 3.89 | 3.23 | 97 | 1014.0 |
| 20260509173506 | 18 | 181 | 3.2 | 6.4 | 0.20 | 3.89 | 3.23 | 97 | 1014.1 |
| 20260509173401 | 18 | 155 | 4.8 | 6.4 | 0.20 | 3.89 | 3.23 | 97 | 1014.0 |
| 20260509173304 | 18 | 174 | 3.2 | 6.4 | 0.23 | 3.89 | 3.23 | 97 | 1014.0 |
| 20260509173202 | 18 | 164 | 3.2 | 6.4 | 0.23 | 3.89 | 3.23 | 97 | 1014.0 |
| 20260509173103 | 18 | 172 | 3.2 | 6.4 | 0.25 | 3.89 | 3.23 | 96 | 1013.9 |
| 20260509173006 | 18 | 191 | 4.8 | 6.4 | 0.25 | 3.89 | 3.23 | 96 | 1013.9 |
| 20260509172804 | 17 | 158 | 3.2 | 6.4 | 0.25 | 3.89 | 3.23 | 96 | 1013.8 |
| 20260509172702 | 17 | 162 | 4.8 | 6.4 | 0.28 | 3.86 | 3.20 | 96 | 1014.0 |
| 20260509172604 | 17 | 158 | 4.8 | 8.0 | 0.28 | 3.86 | 3.20 | 96 | 1013.9 |
| 20260509172403 | 17 | 176 | 3.2 | 8.0 | 0.33 | 3.84 | 3.17 | 96 | 1013.9 |
| 20260509172203 | 17 | 125 | 3.2 | 8.0 | 0.38 | 3.84 | 3.17 | 96 | 1014.1 |
| 20260509172104 | 17 | 179 | 4.8 | 8.0 | 0.38 | 3.84 | 3.17 | 96 | 1014.1 |
| 20260509172006 | 17 | 188 | 3.2 | 8.0 | 0.38 | 3.84 | 3.17 | 96 | 1014.1 |
| 20260509171902 | 17 | 199 | 4.8 | 8.0 | 0.41 | 3.84 | 3.17 | 96 | 1013.9 |
| 20260509171804 | 17 | 165 | 4.8 | 8.0 | 0.41 | 3.84 | 3.17 | 96 | 1013.9 |
| 20260509171603 | 17 | 186 | 4.8 | 8.0 | 0.48 | 3.84 | 3.17 | 97 | 1014.0 |
| 20260509171506 | 17 | 166 | 3.2 | 6.4 | 0.48 | 3.84 | 3.17 | 96 | 1014.0 |
| 20260509171402 | 17 | 181 | 4.8 | 6.4 | 0.51 | 3.84 | 3.17 | 97 | 1014.0 |
| 20260509171303 | 17 | 160 | 4.8 | 6.4 | 0.53 | 3.84 | 3.17 | 96 | 1013.9 |
| 20260509171204 | 17 | 160 | 4.8 | 6.4 | 0.53 | 3.84 | 3.17 | 96 | 1014.0 |
| 20260509171103 | 17 | 155 | 4.8 | 6.4 | 0.53 | 3.84 | 3.17 | 96 | 1014.0 |
| 20260509171007 | 17 | 157 | 4.8 | 6.4 | 0.53 | 3.84 | 3.17 | 96 | 1014.0 |
| 20260509170903 | 17 | 155 | 4.8 | 6.4 | 0.56 | 3.84 | 3.17 | 96 | 1014.0 |
| 20260509170803 | 17 | 144 | 4.8 | 6.4 | 0.58 | 3.84 | 3.17 | 96 | 1014.0 |
| 20260509170702 | 17 | 153 | 4.8 | 6.4 | 0.61 | 3.84 | 3.17 | 97 | 1014.1 |
| 20260509170603 | 17 | 155 | 3.2 | 6.4 | 0.58 | 3.81 | 3.15 | 97 | 1014.2 |
| 20260509170505 | 17 | 178 | 4.8 | 6.4 | 0.58 | 3.81 | 3.15 | 96 | 1014.2 |
| 20260509170303 | 17 | 169 | 3.2 | 4.8 | 0.64 | 3.81 | 3.15 | 96 | 1014.1 |
| 20260509170203 | 17 | 212 | 1.6 | 4.8 | 0.64 | 3.81 | 3.15 | 96 | 1014.1 |
| 20260509170008 | 17 | 194 | 3.2 | 4.8 | 0.71 | 3.81 | 3.15 | 97 | 1014.0 |
| 20260509165903 | 17 | 234 | 3.2 | 3.2 | 0.79 | 3.81 | 3.15 | 97 | 1013.9 |
| 20260509165702 | 17 | 260 | 0.0 | 4.8 | 0.86 | 3.78 | 3.12 | 97 | 1013.9 |
| 20260509165505 | 17 | 335 | 0.0 | 4.8 | 0.89 | 3.78 | 3.12 | 97 | 1013.9 |
| 20260509165403 | 17 | 335 | 0.0 | 4.8 | 0.89 | 3.76 | 3.10 | 96 | 1013.9 |
| 20260509165306 | 17 | 335 | 0.0 | 4.8 | 0.89 | 3.76 | 3.10 | 97 | 1014.0 |
| 20260509165203 | 17 | 335 | 0.0 | 4.8 | 0.91 | 3.76 | 3.10 | 97 | 1013.9 |
| 20260509165103 | 17 | 335 | 0.0 | 4.8 | 0.91 | 3.76 | 3.10 | 97 | 1013.9 |
| 20260509164902 | 17 | 228 | 1.6 | 4.8 | 0.91 | 3.73 | 3.07 | 97 | 1014.0 |
| 20260509164804 | 17 | 221 | 0.0 | 4.8 | 0.91 | 3.73 | 3.07 | 97 | 1014.0 |
| 20260509164702 | 17 | 225 | 0.0 | 4.8 | 0.94 | 3.73 | 3.07 | 96 | 1014.0 |
| 20260509164603 | 17 | 255 | 0.0 | 4.8 | 0.94 | 3.73 | 3.07 | 96 | 1014.0 |
| 20260509164403 | 17 | 220 | 0.0 | 3.2 | 0.97 | 3.73 | 3.07 | 96 | 1013.8 |
| 20260509164302 | 17 | 220 | 0.0 | 3.2 | 0.97 | 3.73 | 3.07 | 96 | 1013.9 |
| 20260509164204 | 17 | 238 | 0.0 | 3.2 | 0.94 | 3.71 | 3.05 | 96 | 1013.8 |
| 20260509164102 | 17 | 233 | 0.0 | 4.8 | 0.94 | 3.71 | 3.05 | 96 | 1013.9 |
| 20260509164006 | 17 | 302 | 0.0 | 4.8 | 0.94 | 3.71 | 3.05 | 96 | 1013.9 |
| 20260509163902 | 17 | 302 | 0.0 | 4.8 | 0.97 | 3.71 | 3.05 | 97 | 1014.1 |
| 20260509163803 | 17 | 260 | 0.0 | 4.8 | 0.99 | 3.71 | 3.05 | 96 | 1014.1 |
| 20260509163703 | 17 | 254 | 0.0 | 4.8 | 0.99 | 3.71 | 3.05 | 96 | 1014.1 |
| 20260509163603 | 17 | 281 | 0.0 | 4.8 | 0.99 | 3.68 | 3.02 | 96 | 1014.1 |
| 20260509163403 | 17 | 321 | 0.0 | 4.8 | 1.02 | 3.66 | 3.00 | 96 | 1014.2 |
| 20260509163304 | 17 | 302 | 0.0 | 4.8 | 1.02 | 3.66 | 3.00 | 96 | 1014.2 |
| 20260509163204 | 17 | 277 | 4.8 | 4.8 | 1.07 | 3.66 | 3.00 | 96 | 1014.2 |
| 20260509163103 | 17 | 268 | 3.2 | 4.8 | 1.07 | 3.63 | 2.97 | 96 | 1014.2 |
| 20260509163007 | 17 | 250 | 3.2 | 4.8 | 1.07 | 3.63 | 2.97 | 96 | 1014.2 |
| 20260509162902 | 17 | 167 | 0.0 | 4.8 | 1.09 | 3.63 | 2.97 | 97 | 1014.2 |
| 20260509162603 | 17 | 235 | 0.0 | 4.8 | 1.09 | 3.58 | 2.92 | 96 | 1014.2 |
| 20260509162505 | 17 | 235 | 0.0 | 4.8 | 1.07 | 3.53 | 2.87 | 96 | 1014.3 |
| 20260509162403 | 17 | 235 | 0.0 | 4.8 | 1.07 | 3.51 | 2.84 | 96 | 1014.3 |
| 20260509162306 | 17 | 267 | 0.0 | 4.8 | 1.07 | 3.48 | 2.82 | 96 | 1014.3 |
| 20260509162202 | 17 | 287 | 4.8 | 4.8 | 1.04 | 3.45 | 2.79 | 96 | 1014.4 |
| 20260509162101 | 17 | 302 | 4.8 | 4.8 | 1.04 | 3.45 | 2.79 | 96 | 1014.4 |
| 20260509162006 | 17 | 295 | 0.0 | 4.8 | 1.02 | 3.43 | 2.77 | 96 | 1014.4 |
| 20260509161903 | 17 | 153 | 0.0 | 6.4 | 1.02 | 3.43 | 2.77 | 96 | 1014.5 |
| 20260509161803 | 17 | 10 | 0.0 | 6.4 | 1.02 | 3.40 | 2.74 | 96 | 1014.5 |
| 20260509161702 | 17 | 274 | 3.2 | 8.0 | 0.99 | 3.38 | 2.72 | 96 | 1014.5 |
| 20260509161603 | 17 | 227 | 3.2 | 8.0 | 0.99 | 3.35 | 2.69 | 96 | 1014.5 |
| 20260509161506 | 17 | 249 | 3.2 | 8.0 | 0.97 | 3.33 | 2.67 | 96 | 1014.5 |
| 20260509161303 | 17 | 125 | 0.0 | 8.0 | 0.97 | 3.30 | 2.64 | 96 | 1014.6 |
| 20260509161203 | 17 | 181 | 0.0 | 8.0 | 0.97 | 3.30 | 2.64 | 96 | 1014.6 |
| 20260509161103 | 17 | 194 | 3.2 | 8.0 | 0.97 | 3.30 | 2.64 | 96 | 1014.8 |
| 20260509161006 | 17 | 207 | 3.2 | 8.0 | 0.94 | 3.28 | 2.62 | 96 | 1014.8 |
| 20260509160902 | 17 | 221 | 6.4 | 9.7 | 0.97 | 3.28 | 2.62 | 96 | 1014.8 |
| 20260509160803 | 17 | 226 | 8.0 | 9.7 | 0.97 | 3.25 | 2.59 | 96 | 1014.8 |
| 20260509160703 | 17 | 238 | 6.4 | 9.7 | 0.97 | 3.23 | 2.57 | 96 | 1014.8 |
| 20260509160603 | 17 | 227 | 0.0 | 9.7 | 0.99 | 3.23 | 2.57 | 96 | 1014.8 |
| 20260509160506 | 17 | 185 | 3.2 | 9.7 | 0.97 | 3.20 | 2.54 | 96 | 1014.8 |
| 20260509160403 | 17 | 219 | 3.2 | 9.7 | 1.04 | 3.20 | 2.54 | 96 | 1014.7 |
| 20260509160203 | 17 | 204 | 0.0 | 9.7 | 1.07 | 3.15 | 2.49 | 96 | 1014.7 |
| 20260509160104 | 17 | 309 | 0.0 | 9.7 | 1.02 | 3.10 | 2.44 | 96 | 1014.8 |
| 20260509155902 | 17 | 285 | 1.6 | 8.0 | 0.99 | 3.02 | 2.36 | 96 | 1015.5 |
| 20260509155801 | 17 | 248 | 4.8 | 8.0 | 0.94 | 2.97 | 2.31 | 97 | 1015.6 |
| 20260509155602 | 17 | 224 | 3.2 | 8.0 | 0.89 | 2.90 | 2.24 | 96 | 1015.5 |
| 20260509155505 | 17 | 232 | 4.8 | 8.0 | 0.86 | 2.87 | 2.21 | 96 | 1015.5 |
| 20260509155401 | 17 | 221 | 3.2 | 8.0 | 0.86 | 2.87 | 2.21 | 96 | 1015.2 |
| 20260509155305 | 17 | 229 | 4.8 | 8.0 | 0.86 | 2.87 | 2.21 | 96 | 1014.9 |
| 20260509155201 | 17 | 235 | 3.2 | 8.0 | 0.86 | 2.84 | 2.18 | 96 | 1014.7 |
| 20260509155102 | 17 | 223 | 6.4 | 8.0 | 0.86 | 2.84 | 2.18 | 96 | 1014.5 |
| 20260509155006 | 17 | 230 | 6.4 | 6.4 | 0.86 | 2.82 | 2.16 | 96 | 1014.4 |
| 20260509154902 | 17 | 221 | 4.8 | 6.4 | 0.86 | 2.82 | 2.16 | 96 | 1014.2 |
| 20260509154803 | 17 | 221 | 4.8 | 6.4 | 0.86 | 2.79 | 2.13 | 96 | 1014.1 |
| 20260509154701 | 17 | 215 | 1.6 | 6.4 | 0.89 | 2.79 | 2.13 | 96 | 1014.0 |
| 20260509154602 | 17 | 186 | 3.2 | 6.4 | 0.91 | 2.79 | 2.13 | 96 | 1014.0 |
| 20260509154506 | 17 | 181 | 3.2 | 6.4 | 0.94 | 2.79 | 2.13 | 96 | 1013.9 |
| 20260509154402 | 17 | 176 | 3.2 | 6.4 | 0.94 | 2.77 | 2.11 | 96 | 1013.9 |
| 20260509154302 | 17 | 167 | 3.2 | 4.8 | 0.94 | 2.77 | 2.11 | 96 | 1013.9 |
| 20260509154201 | 17 | 197 | 3.2 | 4.8 | 0.94 | 2.77 | 2.11 | 96 | 1013.9 |
| 20260509154102 | 17 | 203 | 3.2 | 4.8 | 0.91 | 2.74 | 2.08 | 96 | 1014.0 |
| 20260509153901 | 17 | 194 | 4.8 | 4.8 | 0.94 | 2.74 | 2.08 | 96 | 1014.0 |
| 20260509153801 | 17 | 188 | 4.8 | 4.8 | 0.91 | 2.72 | 2.06 | 96 | 1014.1 |
| 20260509153402 | 17 | 236 | 1.6 | 6.4 | 0.86 | 2.64 | 1.98 | 96 | 1014.0 |
| 20260509153302 | 17 | 243 | 3.2 | 6.4 | 0.86 | 2.62 | 1.96 | 96 | 1014.0 |
| 20260509153203 | 17 | 176 | 0.0 | 6.4 | 0.84 | 2.59 | 1.93 | 96 | 1014.0 |
| 20260509153102 | 17 | 237 | 0.0 | 6.4 | 0.81 | 2.57 | 1.91 | 96 | 1014.0 |
| 20260509153009 | 17 | 218 | 3.2 | 6.4 | 0.81 | 2.57 | 1.91 | 96 | 1014.0 |
| 20260509152902 | 17 | 209 | 3.2 | 6.4 | 0.81 | 2.54 | 1.88 | 96 | 1014.2 |
| 20260509152801 | 17 | 190 | 3.2 | 6.4 | 0.81 | 2.54 | 1.88 | 96 | 1014.1 |
| 20260509152702 | 17 | 201 | 4.8 | 6.4 | 0.79 | 2.51 | 1.85 | 96 | 1014.1 |
| 20260509152602 | 17 | 209 | 4.8 | 8.0 | 0.79 | 2.49 | 1.83 | 96 | 1014.0 |
| 20260509152506 | 17 | 214 | 4.8 | 8.0 | 0.76 | 2.46 | 1.80 | 96 | 1014.0 |
| 20260509152402 | 17 | 228 | 6.4 | 8.0 | 0.76 | 2.44 | 1.78 | 96 | 1013.9 |
| 20260509152305 | 17 | 228 | 6.4 | 8.0 | 0.74 | 2.41 | 1.75 | 96 | 1013.9 |
| 20260509152202 | 17 | 224 | 6.4 | 8.0 | 0.74 | 2.41 | 1.75 | 96 | 1013.8 |
| 20260509152102 | 17 | 192 | 4.8 | 8.0 | 0.74 | 2.41 | 1.75 | 96 | 1013.8 |
| 20260509152006 | 17 | 238 | 3.2 | 8.0 | 0.74 | 2.41 | 1.75 | 96 | 1013.8 |
| 20260509151802 | 17 | 213 | 0.0 | 8.0 | 0.71 | 2.39 | 1.73 | 96 | 1013.8 |
| 20260509151702 | 17 | 173 | 6.4 | 8.0 | 0.71 | 2.39 | 1.73 | 96 | 1013.8 |
| 20260509151602 | 17 | 202 | 0.0 | 8.0 | 0.71 | 2.36 | 1.70 | 96 | 1013.8 |
| 20260509151506 | 17 | 221 | 0.0 | 8.0 | 0.71 | 2.36 | 1.70 | 96 | 1013.8 |
| 20260509151402 | 17 | 153 | 0.0 | 8.0 | 0.71 | 2.36 | 1.70 | 96 | 1013.9 |
| 20260509151301 | 17 | 153 | 0.0 | 8.0 | 0.69 | 2.34 | 1.68 | 96 | 1013.8 |
| 20260509151202 | 17 | 174 | 4.8 | 8.0 | 0.69 | 2.34 | 1.68 | 96 | 1014.0 |
| 20260509151102 | 17 | 174 | 3.2 | 8.0 | 0.69 | 2.34 | 1.68 | 96 | 1014.0 |
| 20260509150901 | 17 | 193 | 4.8 | 8.0 | 0.69 | 2.31 | 1.65 | 96 | 1014.1 |
| 20260509150801 | 17 | 165 | 6.4 | 8.0 | 0.66 | 2.29 | 1.63 | 96 | 1014.1 |
| 20260509150702 | 17 | 204 | 4.8 | 8.0 | 0.64 | 2.26 | 1.60 | 96 | 1014.0 |
| 20260509150505 | 17 | 209 | 3.2 | 6.4 | 0.58 | 2.21 | 1.55 | 96 | 1014.1 |
| 20260509150401 | 17 | 207 | 1.6 | 6.4 | 0.53 | 2.16 | 1.50 | 96 | 1014.0 |
| 20260509150301 | 17 | 190 | 3.2 | 6.4 | 0.51 | 2.13 | 1.47 | 96 | 1014.0 |
| 20260509150202 | 17 | 237 | 3.2 | 6.4 | 0.46 | 2.08 | 1.42 | 96 | 1013.8 |
| 20260509145901 | 17 | 198 | 1.6 | 6.4 | 0.41 | 2.03 | 1.37 | 96 | 1013.9 |
| 20260509145802 | 17 | 226 | 3.2 | 6.4 | 0.41 | 2.03 | 1.37 | 96 | 1013.9 |
| 20260509145702 | 17 | 210 | 4.8 | 6.4 | 0.38 | 2.01 | 1.35 | 96 | 1014.0 |
| 20260509145601 | 17 | 222 | 3.2 | 6.4 | 0.38 | 2.01 | 1.35 | 96 | 1013.9 |
| 20260509145505 | 17 | 213 | 4.8 | 6.4 | 0.38 | 2.01 | 1.35 | 96 | 1013.9 |
| 20260509145202 | 17 | 242 | 3.2 | 6.4 | 0.38 | 1.98 | 1.32 | 96 | 1013.6 |
| 20260509145102 | 17 | 233 | 3.2 | 6.4 | 0.38 | 1.98 | 1.32 | 96 | 1013.4 |
| 20260509145006 | 17 | 211 | 3.2 | 6.4 | 0.36 | 1.96 | 1.30 | 96 | 1013.4 |
| 20260509144902 | 17 | 201 | 3.2 | 6.4 | 0.38 | 1.96 | 1.30 | 96 | 1013.4 |
| 20260509144801 | 17 | 191 | 1.6 | 6.4 | 0.36 | 1.93 | 1.27 | 96 | 1013.5 |
| 20260509144701 | 17 | 153 | 1.6 | 6.4 | 0.33 | 1.91 | 1.24 | 96 | 1013.6 |
| 20260509144602 | 17 | 148 | 0.0 | 6.4 | 0.30 | 1.88 | 1.22 | 96 | 1013.6 |
| 20260509144506 | 17 | 186 | 4.8 | 8.0 | 0.28 | 1.85 | 1.19 | 96 | 1013.6 |
| 20260509144402 | 17 | 191 | 3.2 | 8.0 | 0.25 | 1.83 | 1.17 | 96 | 1013.9 |
| 20260509144201 | 17 | 194 | 4.8 | 8.0 | 0.28 | 1.83 | 1.17 | 97 | 1014.1 |
| 20260509144101 | 17 | 210 | 3.2 | 8.0 | 0.28 | 1.83 | 1.17 | 97 | 1014.1 |
| 20260509144005 | 17 | 203 | 3.2 | 8.0 | 0.28 | 1.83 | 1.17 | 97 | 1014.1 |
| 20260509143902 | 17 | 218 | 3.2 | 8.0 | 0.25 | 1.80 | 1.14 | 97 | 1014.0 |
| 20260509143802 | 17 | 210 | 6.4 | 8.0 | 0.25 | 1.80 | 1.14 | 96 | 1013.9 |
| 20260509143701 | 17 | 215 | 3.2 | 8.0 | 0.25 | 1.80 | 1.14 | 96 | 1013.9 |
| 20260509143602 | 17 | 195 | 8.0 | 8.0 | 0.25 | 1.80 | 1.14 | 97 | 1013.8 |
| 20260509143505 | 17 | 188 | 4.8 | 8.0 | 0.23 | 1.78 | 1.12 | 97 | 1013.8 |
| 20260509143401 | 17 | 200 | 4.8 | 8.0 | 0.25 | 1.78 | 1.12 | 96 | 1013.8 |
| 20260509143301 | 17 | 202 | 4.8 | 8.0 | 0.23 | 1.75 | 1.09 | 96 | 1013.7 |
| 20260509143201 | 17 | 197 | 4.8 | 8.0 | 0.23 | 1.75 | 1.09 | 96 | 1013.6 |
| 20260509143103 | 17 | 176 | 4.8 | 8.0 | 0.23 | 1.75 | 1.09 | 96 | 1013.7 |
| 20260509143006 | 17 | 157 | 6.4 | 8.0 | 0.20 | 1.73 | 1.07 | 96 | 1013.7 |
| 20260509142902 | 17 | 181 | 4.8 | 8.0 | 0.25 | 1.73 | 1.07 | 96 | 1013.7 |
| 20260509142802 | 17 | 211 | 6.4 | 8.0 | 0.33 | 1.73 | 1.07 | 96 | 1013.6 |
| 20260509142701 | 17 | 169 | 4.8 | 6.4 | 0.41 | 1.73 | 1.07 | 96 | 1013.7 |
| 20260509142601 | 17 | 176 | 4.8 | 6.4 | 0.51 | 1.70 | 1.04 | 96 | 1013.6 |
| 20260509142506 | 17 | 195 | 1.6 | 6.4 | 0.51 | 1.70 | 1.04 | 96 | 1013.6 |
| 20260509142301 | 17 | 219 | 3.2 | 6.4 | 0.51 | 1.68 | 1.02 | 96 | 1013.7 |
| 20260509142201 | 17 | 210 | 4.8 | 6.4 | 0.53 | 1.68 | 1.02 | 96 | 1013.5 |
| 20260509142101 | 17 | 228 | 3.2 | 6.4 | 0.56 | 1.68 | 1.02 | 96 | 1013.5 |
| 20260509142006 | 17 | 181 | 4.8 | 6.4 | 0.56 | 1.68 | 1.02 | 96 | 1013.5 |
| 20260509141702 | 17 | 202 | 3.2 | 6.4 | 0.69 | 1.68 | 1.02 | 96 | 1013.6 |
| 20260509141601 | 17 | 215 | 0.0 | 6.4 | 0.74 | 1.65 | 0.99 | 96 | 1013.6 |
| 20260509141505 | 17 | 186 | 3.2 | 8.0 | 0.81 | 1.65 | 0.99 | 96 | 1013.7 |
| 20260509141401 | 17 | 162 | 1.6 | 8.0 | 0.86 | 1.65 | 0.99 | 96 | 1013.7 |
| 20260509141301 | 17 | 203 | 0.0 | 8.0 | 0.89 | 1.65 | 0.99 | 97 | 1013.7 |
| 20260509141201 | 17 | 125 | 0.0 | 8.0 | 0.91 | 1.65 | 0.99 | 97 | 1013.7 |
| 20260509141102 | 17 | 191 | 3.2 | 8.0 | 0.94 | 1.65 | 0.99 | 97 | 1013.8 |
| 20260509141005 | 17 | 190 | 4.8 | 8.0 | 0.94 | 1.65 | 0.99 | 97 | 1013.8 |
| 20260509140901 | 17 | 204 | 3.2 | 8.0 | 0.91 | 1.63 | 0.97 | 97 | 1013.9 |
| 20260509140803 | 17 | 219 | 0.0 | 8.0 | 0.94 | 1.63 | 0.97 | 97 | 1013.8 |
| 20260509140701 | 17 | 151 | 0.0 | 8.0 | 0.94 | 1.63 | 0.97 | 97 | 1013.8 |
| 20260509140600 | 17 | 165 | 8.0 | 8.0 | 0.94 | 1.63 | 0.97 | 96 | 1013.9 |
| 20260509140504 | 17 | 173 | 3.2 | 6.4 | 0.94 | 1.63 | 0.97 | 97 | 1013.9 |
| 20260509140403 | 17 | 188 | 1.6 | 6.4 | 0.94 | 1.63 | 0.97 | 97 | 1014.0 |
| 20260509140303 | 17 | 178 | 6.4 | 6.4 | 0.94 | 1.63 | 0.97 | 97 | 1014.0 |
| 20260509140201 | 17 | 236 | 1.6 | 6.4 | 0.94 | 1.63 | 0.97 | 97 | 1014.0 |
| 20260509140008 | 17 | 160 | 0.0 | 6.4 | 0.94 | 1.63 | 0.97 | 97 | 1013.9 |
| 20260509135904 | 17 | 197 | 4.8 | 6.4 | 0.94 | 1.63 | 0.97 | 97 | 1014.0 |
| 20260509135804 | 17 | 160 | 1.6 | 4.8 | 0.94 | 1.63 | 0.97 | 97 | 1014.0 |
| 20260509135703 | 17 | 148 | 3.2 | 4.8 | 0.94 | 1.63 | 0.97 | 97 | 1014.1 |
| 20260509135602 | 17 | 203 | 0.0 | 4.8 | 0.94 | 1.63 | 0.97 | 97 | 1014.1 |
| 20260509135505 | 17 | 199 | 4.8 | 4.8 | 0.91 | 1.60 | 0.94 | 97 | 1014.1 |
| 20260509135403 | 17 | 171 | 0.0 | 4.8 | 0.91 | 1.60 | 0.94 | 97 | 1014.0 |
| 20260509135305 | 17 | 139 | 0.0 | 4.8 | 0.91 | 1.60 | 0.94 | 97 | 1014.0 |
| 20260509135203 | 17 | 160 | 0.0 | 4.8 | 0.91 | 1.60 | 0.94 | 97 | 1014.1 |
| 20260509135007 | 17 | 127 | 0.0 | 4.8 | 0.91 | 1.60 | 0.94 | 97 | 1014.3 |
| 20260509134902 | 17 | 69 | 3.2 | 3.2 | 0.89 | 1.57 | 0.91 | 96 | 1014.4 |
| 20260509134802 | 17 | 148 | 0.0 | 4.8 | 0.89 | 1.57 | 0.91 | 96 | 1014.4 |
| 20260509134702 | 17 | 64 | 0.0 | 4.8 | 0.89 | 1.57 | 0.91 | 96 | 1014.4 |
| 20260509134602 | 17 | 64 | 0.0 | 4.8 | 0.91 | 1.57 | 0.91 | 96 | 1014.4 |
| 20260509134506 | 17 | 41 | 0.0 | 4.8 | 0.91 | 1.57 | 0.91 | 96 | 1014.4 |
| 20260509134401 | 17 | 186 | 1.6 | 6.4 | 0.91 | 1.57 | 0.91 | 96 | 1014.3 |
| 20260509134203 | 17 | 192 | 0.0 | 6.4 | 0.89 | 1.55 | 0.89 | 96 | 1014.3 |
| 20260509134102 | 17 | 214 | 0.0 | 6.4 | 0.89 | 1.55 | 0.89 | 96 | 1014.2 |
| 20260509134007 | 17 | 244 | 0.0 | 6.4 | 0.89 | 1.55 | 0.89 | 96 | 1014.2 |
| 20260509133902 | 17 | 183 | 4.8 | 6.4 | 0.89 | 1.55 | 0.89 | 96 | 1014.2 |
| 20260509133802 | 17 | 219 | 0.0 | 6.4 | 0.89 | 1.55 | 0.89 | 96 | 1014.2 |
| 20260509133702 | 17 | 200 | 1.6 | 11.3 | 0.89 | 1.55 | 0.89 | 96 | 1014.2 |
| 20260509133602 | 17 | 181 | 0.0 | 11.3 | 0.89 | 1.55 | 0.89 | 96 | 1014.2 |
| 20260509133506 | 17 | 134 | 0.0 | 11.3 | 0.89 | 1.55 | 0.89 | 96 | 1014.2 |
| 20260509133103 | 17 | 8 | 3.2 | 11.3 | 0.86 | 1.52 | 0.86 | 96 | 1014.1 |
| 20260509133006 | 17 | 104 | 0.0 | 11.3 | 0.84 | 1.50 | 0.84 | 96 | 1014.1 |
| 20260509132902 | 17 | 360 | 1.6 | 11.3 | 0.81 | 1.47 | 0.81 | 96 | 1014.1 |
| 20260509132803 | 17 | 4 | 3.2 | 9.7 | 0.74 | 1.40 | 0.74 | 96 | 1014.0 |
| 20260509132702 | 17 | 17 | 4.8 | 9.7 | 0.66 | 1.32 | 0.66 | 96 | 1014.1 |
| 20260509132602 | 17 | 158 | 0.0 | 9.7 | 0.53 | 1.19 | 0.53 | 96 | 1014.0 |
| 20260509132506 | 17 | 356 | 0.0 | 9.7 | 0.51 | 1.17 | 0.51 | 96 | 1014.0 |
| 20260509132403 | 17 | 33 | 0.0 | 9.7 | 0.51 | 1.17 | 0.51 | 96 | 1014.0 |
| 20260509132306 | 17 | 74 | 1.6 | 9.7 | 0.51 | 1.17 | 0.51 | 96 | 1014.1 |
| 20260509132203 | 17 | 219 | 4.8 | 9.7 | 0.48 | 1.14 | 0.48 | 96 | 1014.1 |
| 20260509132103 | 17 | 312 | 3.2 | 9.7 | 0.46 | 1.12 | 0.46 | 96 | 1014.1 |
| 20260509131903 | 17 | 236 | 6.4 | 9.7 | 0.38 | 1.04 | 0.38 | 96 | 1014.2 |
| 20260509131704 | 17 | 319 | 3.2 | 9.7 | 0.33 | 0.99 | 0.33 | 97 | 1014.2 |
| 20260509131602 | 17 | 233 | 1.6 | 6.4 | 0.25 | 0.91 | 0.25 | 97 | 1014.1 |
| 20260509131506 | 17 | 56 | 3.2 | 6.4 | 0.18 | 0.84 | 0.18 | 97 | 1014.1 |
| 20260509131303 | 17 | 268 | 4.8 | 6.4 | 0.10 | 0.76 | 0.10 | 97 | 1014.1 |
| 20260509131202 | 17 | 330 | 0.0 | 4.8 | 0.08 | 0.74 | 0.08 | 97 | 1014.1 |
| 20260509131104 | 17 | 316 | 0.0 | 4.8 | 0.05 | 0.71 | 0.05 | 97 | 1014.1 |
| 20260509131006 | 17 | 316 | 0.0 | 4.8 | 0.05 | 0.71 | 0.05 | 97 | 1014.0 |
| 20260509130902 | 17 | 314 | 0.0 | 9.7 | 0.05 | 0.71 | 0.05 | 97 | 1014.0 |
| 20260509130802 | 17 | 202 | 0.0 | 9.7 | 0.03 | 0.69 | 0.03 | 97 | 1013.9 |
| 20260509130703 | 17 | 342 | 0.0 | 9.7 | 0.03 | 0.69 | 0.03 | 97 | 1013.9 |
| 20260509130506 | 17 | 33 | 0.0 | 9.7 | 0.03 | 0.69 | 0.03 | 97 | 1014.1 |
| 20260509130403 | 17 | 355 | 0.0 | 9.7 | 0.03 | 0.69 | 0.03 | 97 | 1014.1 |
| 20260509130202 | 17 | 120 | 0.0 | 9.7 | 0.03 | 0.69 | 0.03 | 97 | 1014.2 |
| 20260509130007 | 17 | 359 | 8.0 | 8.0 | 0.03 | 0.69 | 0.03 | 97 | 1014.2 |
| 20260509125902 | 17 | 285 | 0.0 | 4.8 | 0.03 | 0.69 | 0.03 | 97 | 1014.2 |
| 20260509125701 | 17 | 3 | 0.0 | 4.8 | 0.03 | 0.69 | 0.03 | 97 | 1014.0 |
| 20260509125601 | 17 | 338 | 0.0 | 4.8 | 0.03 | 0.69 | 0.03 | 97 | 1014.0 |
| 20260509125505 | 17 | 356 | 3.2 | 4.8 | 0.03 | 0.69 | 0.03 | 97 | 1014.0 |
| 20260509125201 | 17 | 307 | 0.0 | 4.8 | 0.03 | 0.69 | 0.03 | 97 | 1013.9 |
| 20260509125101 | 17 | 56 | 0.0 | 3.2 | 0.03 | 0.69 | 0.03 | 97 | 1013.7 |
| 20260509125006 | 17 | 56 | 0.0 | 3.2 | 0.03 | 0.69 | 0.03 | 97 | 1013.7 |
| 20260509124900 | 17 | 74 | 0.0 | 3.2 | 0.03 | 0.69 | 0.03 | 97 | 1013.7 |
| 20260509124802 | 17 | 74 | 0.0 | 3.2 | 0.03 | 0.69 | 0.03 | 97 | 1013.8 |
| 20260509124702 | 17 | 56 | 0.0 | 3.2 | 0.03 | 0.69 | 0.03 | 97 | 1013.8 |
| 20260509124602 | 17 | 6 | 0.0 | 3.2 | 0.00 | 0.66 | 0.00 | 97 | 1013.9 |
| 20260509124505 | 17 | 255 | 0.0 | 3.2 | 0.00 | 0.66 | 0.00 | 97 | 1013.9 |
| 20260509124402 | 17 | 255 | 0.0 | 3.2 | 0.00 | 0.66 | 0.00 | 97 | 1013.9 |
| 20260509124101 | 17 | 239 | 0.0 | 0.0 | 0.00 | 0.66 | 0.00 | 97 | 1013.9 |
| 20260509124005 | 17 | 239 | 0.0 | 1.6 | 0.00 | 0.66 | 0.00 | 97 | 1013.9 |
| 20260509123801 | 17 | 239 | 0.0 | 1.6 | 0.00 | 0.66 | 0.00 | 97 | 1013.8 |
| 20260509123701 | 17 | 239 | 0.0 | 1.6 | 0.00 | 0.66 | 0.00 | 97 | 1013.7 |
| 20260509123602 | 17 | 239 | 0.0 | 1.6 | 0.00 | 0.66 | 0.00 | 97 | 1013.7 |
| 20260509123505 | 17 | 239 | 0.0 | 1.6 | 0.00 | 0.66 | 0.00 | 97 | 1013.8 |
| 20260509123401 | 17 | 239 | 0.0 | 1.6 | 0.00 | 0.66 | 0.00 | 97 | 1013.8 |
| 20260509123301 | 17 | 239 | 0.0 | 1.6 | 0.00 | 0.66 | 0.00 | 97 | 1013.8 |
| 20260509123201 | 17 | 325 | 0.0 | 1.6 | 0.00 | 0.66 | 0.00 | 97 | 1013.9 |
| 20260509123101 | 17 | 283 | 0.0 | 1.6 | 0.00 | 0.66 | 0.00 | 97 | 1013.9 |
| 20260509123006 | 17 | 236 | 0.0 | 0.0 | 0.00 | 0.66 | 0.00 | 96 | 1013.9 |
| 20260509122901 | 17 | 277 | 0.0 | 3.2 | 0.00 | 0.66 | 0.00 | 96 | 1013.7 |
| 20260509122801 | 17 | 277 | 0.0 | 3.2 | 0.00 | 0.66 | 0.00 | 96 | 1013.7 |
| 20260509122702 | 17 | 277 | 0.0 | 3.2 | 0.00 | 0.66 | 0.00 | 96 | 1013.8 |
| 20260509122601 | 17 | 277 | 0.0 | 3.2 | 0.00 | 0.66 | 0.00 | 96 | 1013.8 |
| 20260509122402 | 17 | 277 | 0.0 | 3.2 | 0.00 | 0.66 | 0.00 | 96 | 1013.8 |
| 20260509122305 | 17 | 277 | 0.0 | 3.2 | 0.00 | 0.66 | 0.00 | 96 | 1013.7 |
| 20260509122201 | 17 | 293 | 0.0 | 3.2 | 0.00 | 0.66 | 0.00 | 96 | 1013.6 |
| 20260509122006 | 17 | 318 | 0.0 | 3.2 | 0.00 | 0.66 | 0.00 | 96 | 1013.5 |
| 20260509121901 | 17 | 312 | 1.6 | 3.2 | 0.00 | 0.66 | 0.00 | 96 | 1013.4 |
| 20260509121800 | 17 | 238 | 0.0 | 3.2 | 0.00 | 0.66 | 0.00 | 96 | 1013.3 |
| 20260509121702 | 17 | 238 | 0.0 | 3.2 | 0.00 | 0.66 | 0.00 | 96 | 1013.3 |
| 20260509121601 | 17 | 314 | 0.0 | 3.2 | 0.00 | 0.66 | 0.00 | 96 | 1013.3 |
| 20260509121506 | 17 | 293 | 1.6 | 1.6 | 0.00 | 0.66 | 0.00 | 96 | 1013.3 |
| 20260509121402 | 17 | 281 | 0.0 | 1.6 | 0.00 | 0.66 | 0.00 | 96 | 1013.3 |
| 20260509121301 | 17 | 281 | 0.0 | 1.6 | 0.00 | 0.66 | 0.00 | 96 | 1013.3 |
| 20260509121202 | 17 | 281 | 0.0 | 3.2 | 0.00 | 0.66 | 0.00 | 96 | 1013.3 |
| 20260509121102 | 17 | 281 | 0.0 | 4.8 | 0.00 | 0.66 | 0.00 | 96 | 1013.2 |
| 20260509121006 | 17 | 281 | 0.0 | 4.8 | 0.00 | 0.66 | 0.00 | 96 | 1013.2 |
| 20260509120901 | 17 | 281 | 0.0 | 4.8 | 0.00 | 0.66 | 0.00 | 96 | 1013.2 |
| 20260509120801 | 17 | 281 | 0.0 | 4.8 | 0.00 | 0.66 | 0.00 | 97 | 1013.2 |
| 20260509120402 | 17 | 236 | 0.0 | 4.8 | 0.00 | 0.66 | 0.00 | 96 | 1013.3 |
| 20260509120201 | 17 | 223 | 1.6 | 3.2 | 0.00 | 0.66 | 0.00 | 96 | 1013.1 |
| 20260509120007 | 17 | 235 | 0.0 | 1.6 | 0.00 | 0.66 | 0.00 | 96 | 1013.1 |
| 20260509115802 | 17 | 37 | 0.0 | 1.6 | 0.00 | 0.66 | 0.00 | 96 | 1013.0 |
| 20260509115701 | 17 | 37 | 0.0 | 1.6 | 0.00 | 0.66 | 0.00 | 96 | 1013.0 |
| 20260509115505 | 17 | 236 | 0.0 | 3.2 | 0.00 | 0.66 | 0.00 | 96 | 1012.9 |
| 20260509115401 | 17 | 52 | 0.0 | 3.2 | 0.00 | 0.66 | 0.00 | 97 | 1012.9 |
| 20260509115301 | 17 | 307 | 0.0 | 3.2 | 0.00 | 0.66 | 0.00 | 96 | 1012.9 |
| 20260509115202 | 17 | 355 | 0.0 | 3.2 | 0.00 | 0.66 | 0.00 | 97 | 1012.9 |
| 20260509115102 | 17 | 309 | 0.0 | 3.2 | 0.00 | 0.66 | 0.00 | 97 | 1012.9 |
| 20260509115005 | 17 | 309 | 0.0 | 3.2 | 0.00 | 0.66 | 0.00 | 97 | 1012.9 |
| 20260509114902 | 17 | 309 | 0.0 | 3.2 | 0.00 | 0.66 | 0.00 | 97 | 1012.8 |
| 20260509114801 | 17 | 306 | 0.0 | 3.2 | 0.00 | 0.66 | 0.00 | 97 | 1012.8 |
| 20260509114702 | 17 | 314 | 0.0 | 3.2 | 0.00 | 0.66 | 0.00 | 96 | 1012.7 |
| 20260509114601 | 17 | 314 | 3.2 | 3.2 | 0.00 | 0.66 | 0.00 | 96 | 1012.6 |
| 20260509114506 | 17 | 304 | 1.6 | 1.6 | 0.00 | 0.66 | 0.00 | 96 | 1012.5 |
| 20260509114402 | 17 | 319 | 0.0 | 1.6 | 0.00 | 0.66 | 0.00 | 97 | 1012.5 |
| 20260509114302 | 17 | 285 | 0.0 | 1.6 | 0.00 | 0.66 | 0.00 | 96 | 1012.5 |
| 20260509114202 | 17 | 350 | 0.0 | 1.6 | 0.00 | 0.66 | 0.00 | 96 | 1012.5 |
| 20260509113901 | 17 | 350 | 0.0 | 3.2 | 0.00 | 0.66 | 0.00 | 97 | 1012.4 |
| 20260509113801 | 17 | 350 | 0.0 | 3.2 | 0.00 | 0.66 | 0.00 | 97 | 1012.4 |
| 20260509113601 | 17 | 323 | 0.0 | 3.2 | 0.00 | 0.66 | 0.00 | 97 | 1012.4 |
| 20260509113505 | 17 | 164 | 0.0 | 3.2 | 0.00 | 0.66 | 0.00 | 97 | 1012.3 |
| 20260509113401 | 17 | 164 | 0.0 | 3.2 | 0.00 | 0.66 | 0.00 | 97 | 1012.3 |
| 20260509113302 | 17 | 164 | 0.0 | 3.2 | 0.00 | 0.66 | 0.00 | 97 | 1012.2 |
| 20260509113203 | 17 | 231 | 0.0 | 3.2 | 0.00 | 0.66 | 0.00 | 97 | 1012.2 |
| 20260509113101 | 17 | 165 | 1.6 | 3.2 | 0.00 | 0.66 | 0.00 | 97 | 1012.2 |
| 20260509113006 | 17 | 153 | 3.2 | 3.2 | 0.00 | 0.66 | 0.00 | 97 | 1012.2 |
| 20260509112900 | 17 | 178 | 0.0 | 3.2 | 0.00 | 0.66 | 0.00 | 97 | 1012.1 |
| 20260509112802 | 17 | 193 | 0.0 | 0.0 | 0.00 | 0.66 | 0.00 | 97 | 1012.0 |
| 20260509112702 | 17 | 241 | 0.0 | 0.0 | 0.00 | 0.66 | 0.00 | 97 | 1012.0 |
| 20260509112601 | 17 | 241 | 0.0 | 0.0 | 0.00 | 0.66 | 0.00 | 97 | 1012.1 |
| 20260509112505 | 17 | 241 | 0.0 | 0.0 | 0.00 | 0.66 | 0.00 | 97 | 1012.1 |
| 20260509112401 | 17 | 241 | 0.0 | 0.0 | 0.00 | 0.66 | 0.00 | 97 | 1012.0 |
| 20260509112301 | 17 | 241 | 0.0 | 0.0 | 0.00 | 0.66 | 0.00 | 97 | 1012.0 |
| 20260509112201 | 17 | 241 | 0.0 | 0.0 | 0.00 | 0.66 | 0.00 | 97 | 1011.9 |
| 20260509112101 | 17 | 241 | 0.0 | 1.6 | 0.00 | 0.66 | 0.00 | 97 | 1011.8 |
| 20260509112006 | 17 | 241 | 0.0 | 1.6 | 0.00 | 0.66 | 0.00 | 97 | 1011.9 |
| 20260509111801 | 17 | 241 | 0.0 | 1.6 | 0.00 | 0.66 | 0.00 | 97 | 1011.8 |
| 20260509111702 | 17 | 241 | 0.0 | 1.6 | 0.00 | 0.66 | 0.00 | 97 | 1011.8 |
| 20260509111602 | 17 | 257 | 0.0 | 1.6 | 0.00 | 0.66 | 0.00 | 97 | 1011.9 |
| 20260509111506 | 17 | 257 | 0.0 | 1.6 | 0.00 | 0.66 | 0.00 | 97 | 1011.9 |
| 20260509111300 | 17 | 257 | 0.0 | 1.6 | 0.00 | 0.66 | 0.00 | 97 | 1011.9 |
| 20260509111201 | 17 | 255 | 0.0 | 1.6 | 0.00 | 0.66 | 0.00 | 97 | 1012.0 |
| 20260509111102 | 17 | 285 | 0.0 | 1.6 | 0.00 | 0.66 | 0.00 | 97 | 1012.0 |
| 20260509111005 | 17 | 231 | 0.0 | 0.0 | 0.00 | 0.66 | 0.00 | 97 | 1012.0 |
| 20260509110901 | 17 | 306 | 0.0 | 1.6 | 0.00 | 0.66 | 0.00 | 97 | 1011.9 |
| 20260509110802 | 17 | 306 | 0.0 | 1.6 | 0.00 | 0.66 | 0.00 | 96 | 1011.8 |
| 20260509110702 | 17 | 306 | 0.0 | 1.6 | 0.00 | 0.66 | 0.00 | 96 | 1011.7 |
| 20260509110601 | 17 | 306 | 0.0 | 1.6 | 0.00 | 0.66 | 0.00 | 96 | 1011.7 |
| 20260509110401 | 17 | 109 | 0.0 | 1.6 | 0.00 | 0.66 | 0.00 | 96 | 1011.7 |
| 20260509110301 | 17 | 109 | 0.0 | 1.6 | 0.00 | 0.66 | 0.00 | 96 | 1011.6 |
| 20260509110201 | 17 | 109 | 0.0 | 1.6 | 0.00 | 0.66 | 0.00 | 96 | 1011.5 |
| 20260509110007 | 17 | 109 | 0.0 | 1.6 | 0.00 | 0.66 | 0.00 | 96 | 1011.5 |
| 20260509105402 | 17 | 267 | 0.0 | 1.6 | 0.00 | 0.66 | 0.00 | 96 | 1011.5 |
| 20260509105306 | 17 | 267 | 0.0 | 1.6 | 0.00 | 0.66 | 0.00 | 96 | 1011.5 |
| 20260509105203 | 17 | 267 | 0.0 | 1.6 | 0.00 | 0.66 | 0.00 | 96 | 1011.5 |
| 20260509105006 | 17 | 267 | 0.0 | 1.6 | 0.00 | 0.66 | 0.00 | 96 | 1011.5 |
| 20260509104903 | 17 | 267 | 0.0 | 1.6 | 0.00 | 0.66 | 0.00 | 96 | 1011.5 |
| 20260509104802 | 17 | 285 | 0.0 | 1.6 | 0.00 | 0.66 | 0.00 | 96 | 1011.5 |
| 20260509104603 | 17 | 131 | 0.0 | 0.0 | 0.00 | 0.66 | 0.00 | 96 | 1011.4 |
| 20260509104506 | 17 | 131 | 0.0 | 1.6 | 0.00 | 0.66 | 0.00 | 96 | 1011.4 |
| 20260509104403 | 17 | 131 | 0.0 | 3.2 | 0.00 | 0.66 | 0.00 | 96 | 1011.4 |
| 20260509104302 | 17 | 131 | 0.0 | 3.2 | 0.00 | 0.66 | 0.00 | 96 | 1011.2 |
| 20260509104204 | 17 | 131 | 0.0 | 3.2 | 0.00 | 0.66 | 0.00 | 96 | 1011.2 |
| 20260509104108 | 17 | 131 | 0.0 | 3.2 | 0.00 | 0.66 | 0.00 | 96 | 1011.1 |
| 20260509104007 | 17 | 131 | 0.0 | 3.2 | 0.00 | 0.66 | 0.00 | 96 | 1011.1 |
| 20260509103903 | 17 | 131 | 0.0 | 3.2 | 0.00 | 0.66 | 0.00 | 96 | 1011.1 |
| 20260509103803 | 17 | 130 | 0.0 | 3.2 | 0.00 | 0.66 | 0.00 | 96 | 1011.1 |
| 20260509103702 | 17 | 108 | 0.0 | 3.2 | 0.00 | 0.66 | 0.00 | 96 | 1011.2 |
| 20260509103602 | 17 | 202 | 0.0 | 3.2 | 0.00 | 0.66 | 0.00 | 96 | 1011.2 |
| 20260509103506 | 17 | 202 | 0.0 | 3.2 | 0.00 | 0.66 | 0.00 | 96 | 1011.3 |
| 20260509103402 | 17 | 110 | 0.0 | 3.2 | 0.00 | 0.66 | 0.00 | 96 | 1011.2 |
| 20260509103302 | 17 | 137 | 0.0 | 3.2 | 0.00 | 0.66 | 0.00 | 96 | 1011.3 |
| 20260509103203 | 17 | 186 | 0.0 | 3.2 | 0.00 | 0.66 | 0.00 | 96 | 1011.4 |
| 20260509103103 | 17 | 148 | 0.0 | 3.2 | 0.00 | 0.66 | 0.00 | 96 | 1011.4 |
| 20260509102904 | 17 | 148 | 0.0 | 3.2 | 0.00 | 0.66 | 0.00 | 96 | 1011.4 |
| 20260509102702 | 17 | 148 | 0.0 | 4.8 | 0.00 | 0.66 | 0.00 | 96 | 1011.2 |
| 20260509102403 | 17 | 144 | 0.0 | 4.8 | 0.00 | 0.66 | 0.00 | 96 | 1011.2 |
| 20260509102305 | 17 | 144 | 0.0 | 4.8 | 0.00 | 0.66 | 0.00 | 96 | 1011.2 |
| 20260509102202 | 17 | 144 | 0.0 | 4.8 | 0.00 | 0.66 | 0.00 | 96 | 1011.1 |
| 20260509102006 | 17 | 131 | 0.0 | 4.8 | 0.00 | 0.66 | 0.00 | 96 | 1011.1 |
| 20260509101903 | 17 | 162 | 1.6 | 4.8 | 0.00 | 0.66 | 0.00 | 96 | 1011.2 |
| 20260509101802 | 17 | 148 | 3.2 | 4.8 | 0.00 | 0.66 | 0.00 | 96 | 1011.3 |
| 20260509101702 | 17 | 179 | 0.0 | 3.2 | 0.00 | 0.66 | 0.00 | 96 | 1011.4 |
| 20260509101602 | 17 | 162 | 0.0 | 3.2 | 0.00 | 0.66 | 0.00 | 96 | 1011.4 |
| 20260509101506 | 17 | 222 | 0.0 | 3.2 | 0.00 | 0.66 | 0.00 | 96 | 1011.4 |
| 20260509101403 | 17 | 228 | 0.0 | 3.2 | 0.00 | 0.66 | 0.00 | 96 | 1011.5 |
| 20260509101303 | 17 | 228 | 0.0 | 3.2 | 0.00 | 0.66 | 0.00 | 96 | 1011.5 |
| 20260509101203 | 17 | 193 | 0.0 | 3.2 | 0.00 | 0.66 | 0.00 | 96 | 1011.6 |
| 20260509101102 | 17 | 197 | 0.0 | 3.2 | 0.00 | 0.66 | 0.00 | 96 | 1011.5 |
| 20260509101006 | 17 | 153 | 0.0 | 3.2 | 0.00 | 0.66 | 0.00 | 96 | 1011.5 |
| 20260509100802 | 17 | 155 | 0.0 | 3.2 | 0.00 | 0.66 | 0.00 | 96 | 1011.6 |
| 20260509100703 | 17 | 288 | 0.0 | 3.2 | 0.00 | 0.66 | 0.00 | 96 | 1011.6 |
| 20260509100603 | 17 | 288 | 0.0 | 3.2 | 0.00 | 0.66 | 0.00 | 96 | 1011.6 |
| 20260509100506 | 17 | 288 | 0.0 | 3.2 | 0.00 | 0.66 | 0.00 | 96 | 1011.8 |
| 20260509100401 | 17 | 289 | 0.0 | 3.2 | 0.00 | 0.66 | 0.00 | 96 | 1011.9 |
| 20260509100203 | 17 | 295 | 3.2 | 3.2 | 0.00 | 0.66 | 0.00 | 96 | 1011.7 |
| 20260509100007 | 17 | 123 | 0.0 | 3.2 | 0.00 | 0.66 | 0.00 | 96 | 1011.6 |
| 20260509095901 | 17 | 123 | 0.0 | 3.2 | 0.00 | 0.66 | 0.00 | 96 | 1011.4 |
| 20260509095801 | 17 | 123 | 0.0 | 3.2 | 0.00 | 0.66 | 0.00 | 96 | 1011.4 |
| 20260509095702 | 17 | 123 | 0.0 | 3.2 | 0.00 | 0.66 | 0.00 | 96 | 1011.4 |
| 20260509095601 | 17 | 123 | 0.0 | 3.2 | 0.00 | 0.66 | 0.00 | 96 | 1011.5 |
| 20260509095305 | 17 | 141 | 3.2 | 3.2 | 0.00 | 0.66 | 0.00 | 96 | 1011.5 |
| 20260509095102 | 17 | 122 | 0.0 | 3.2 | 0.00 | 0.66 | 0.00 | 96 | 1011.4 |
| 20260509095005 | 17 | 122 | 0.0 | 3.2 | 0.00 | 0.66 | 0.00 | 96 | 1011.4 |
| 20260509094901 | 17 | 122 | 0.0 | 3.2 | 0.00 | 0.66 | 0.00 | 96 | 1011.6 |
| 20260509094802 | 17 | 137 | 0.0 | 3.2 | 0.00 | 0.66 | 0.00 | 96 | 1011.6 |
| 20260509094701 | 17 | 172 | 3.2 | 3.2 | 0.00 | 0.66 | 0.00 | 96 | 1011.5 |
| 20260509094602 | 17 | 129 | 0.0 | 0.0 | 0.00 | 0.66 | 0.00 | 96 | 1011.6 |
| 20260509094506 | 17 | 232 | 0.0 | 0.0 | 0.00 | 0.66 | 0.00 | 96 | 1011.6 |
| 20260509094301 | 17 | 232 | 0.0 | 0.0 | 0.00 | 0.66 | 0.00 | 96 | 1011.6 |
| 20260509094201 | 17 | 232 | 0.0 | 0.0 | 0.00 | 0.66 | 0.00 | 96 | 1011.6 |
| 20260509094101 | 17 | 232 | 0.0 | 1.6 | 0.00 | 0.66 | 0.00 | 96 | 1011.7 |
| 20260509094006 | 17 | 232 | 0.0 | 1.6 | 0.00 | 0.66 | 0.00 | 96 | 1011.7 |
| 20260509093801 | 17 | 251 | 0.0 | 1.6 | 0.00 | 0.66 | 0.00 | 96 | 1011.6 |
| 20260509093702 | 17 | 251 | 0.0 | 1.6 | 0.00 | 0.66 | 0.00 | 96 | 1011.6 |
| 20260509093601 | 17 | 251 | 0.0 | 3.2 | 0.00 | 0.66 | 0.00 | 96 | 1011.5 |
| 20260509093505 | 17 | 251 | 0.0 | 3.2 | 0.00 | 0.66 | 0.00 | 96 | 1011.6 |
| 20260509093202 | 17 | 258 | 0.0 | 3.2 | 0.00 | 0.66 | 0.00 | 96 | 1011.6 |
| 20260509093101 | 17 | 162 | 0.0 | 3.2 | 0.00 | 0.66 | 0.00 | 96 | 1011.6 |
| 20260509092801 | 17 | 216 | 0.0 | 3.2 | 0.00 | 0.66 | 0.00 | 96 | 1011.6 |
| 20260509092702 | 17 | 146 | 0.0 | 3.2 | 0.00 | 0.66 | 0.00 | 96 | 1011.6 |
| 20260509092601 | 17 | 150 | 0.0 | 3.2 | 0.00 | 0.66 | 0.00 | 96 | 1011.7 |
| 20260509092505 | 17 | 151 | 3.2 | 3.2 | 0.00 | 0.66 | 0.00 | 96 | 1011.7 |
| 20260509092402 | 17 | 150 | 0.0 | 3.2 | 0.00 | 0.66 | 0.00 | 96 | 1011.7 |
| 20260509092305 | 17 | 169 | 0.0 | 3.2 | 0.00 | 0.66 | 0.00 | 96 | 1011.7 |
| 20260509092201 | 17 | 146 | 0.0 | 1.6 | 0.00 | 0.66 | 0.00 | 96 | 1011.7 |
| 20260509092101 | 17 | 256 | 0.0 | 1.6 | 0.00 | 0.66 | 0.00 | 96 | 1011.7 |
| 20260509092005 | 17 | 256 | 0.0 | 1.6 | 0.00 | 0.66 | 0.00 | 96 | 1011.8 |
| 20260509091901 | 17 | 256 | 0.0 | 1.6 | 0.00 | 0.66 | 0.00 | 96 | 1011.8 |
| 20260509091702 | 17 | 256 | 0.0 | 1.6 | 0.00 | 0.66 | 0.00 | 96 | 1011.8 |
| 20260509091602 | 17 | 256 | 0.0 | 1.6 | 0.00 | 0.66 | 0.00 | 96 | 1011.9 |
| 20260509091505 | 17 | 256 | 0.0 | 3.2 | 0.00 | 0.66 | 0.00 | 96 | 1011.9 |
| 20260509091401 | 17 | 247 | 0.0 | 3.2 | 0.00 | 0.66 | 0.00 | 96 | 1011.9 |
| 20260509091201 | 17 | 224 | 0.0 | 3.2 | 0.00 | 0.66 | 0.00 | 96 | 1011.9 |
| 20260509091102 | 17 | 224 | 0.0 | 3.2 | 0.00 | 0.66 | 0.00 | 96 | 1011.8 |
| 20260509091006 | 17 | 224 | 0.0 | 3.2 | 0.00 | 0.66 | 0.00 | 96 | 1011.8 |
| 20260509090901 | 17 | 224 | 0.0 | 3.2 | 0.00 | 0.66 | 0.00 | 96 | 1011.8 |
| 20260509090801 | 17 | 224 | 0.0 | 3.2 | 0.00 | 0.66 | 0.00 | 96 | 1011.8 |
| 20260509090701 | 17 | 223 | 0.0 | 3.2 | 0.00 | 0.66 | 0.00 | 96 | 1011.9 |
| 20260509090603 | 17 | 241 | 0.0 | 3.2 | 0.00 | 0.66 | 0.00 | 96 | 1011.8 |
| 20260509090401 | 17 | 258 | 0.0 | 1.6 | 0.00 | 0.66 | 0.00 | 96 | 1011.8 |
| 20260509090301 | 17 | 255 | 0.0 | 1.6 | 0.00 | 0.66 | 0.00 | 96 | 1011.9 |
| 20260509090201 | 17 | 255 | 0.0 | 1.6 | 0.00 | 0.66 | 0.00 | 96 | 1011.8 |
| 20260509090101 | 17 | 255 | 0.0 | 3.2 | 0.00 | 0.66 | 0.00 | 96 | 1011.8 |
| 20260509090007 | 17 | 255 | 0.0 | 3.2 | 0.00 | 0.66 | 0.00 | 96 | 1011.8 |
| 20260509085903 | 17 | 255 | 0.0 | 3.2 | 0.00 | 0.66 | 0.00 | 96 | 1011.9 |
| 20260509085703 | 17 | 251 | 0.0 | 3.2 | 0.00 | 0.66 | 0.00 | 96 | 1011.8 |
| 20260509085602 | 17 | 270 | 0.0 | 3.2 | 0.00 | 0.66 | 0.00 | 96 | 1011.9 |
| 20260509085403 | 17 | 277 | 0.0 | 3.2 | 0.00 | 0.66 | 0.00 | 96 | 1011.9 |
| 20260509085306 | 17 | 277 | 0.0 | 3.2 | 0.00 | 0.66 | 0.00 | 96 | 1011.9 |
| 20260509085203 | 17 | 294 | 0.0 | 3.2 | 0.00 | 0.66 | 0.00 | 96 | 1011.8 |
| 20260509085102 | 17 | 277 | 0.0 | 3.2 | 0.00 | 0.66 | 0.00 | 96 | 1011.9 |
| 20260509085007 | 17 | 284 | 0.0 | 3.2 | 0.00 | 0.66 | 0.00 | 96 | 1011.9 |
| 20260509084903 | 17 | 238 | 0.0 | 3.2 | 0.00 | 0.66 | 0.00 | 96 | 1011.9 |
| 20260509084803 | 17 | 247 | 0.0 | 3.2 | 0.00 | 0.66 | 0.00 | 96 | 1011.9 |
| 20260509084702 | 16 | 238 | 0.0 | 0.0 | 0.00 | 0.66 | 0.00 | 96 | 1011.8 |
| 20260509084603 | 16 | 238 | 0.0 | 0.0 | 0.00 | 0.66 | 0.00 | 96 | 1011.8 |
| 20260509084505 | 16 | 238 | 0.0 | 0.0 | 0.00 | 0.66 | 0.00 | 96 | 1011.8 |
| 20260509084403 | 16 | 238 | 0.0 | 0.0 | 0.00 | 0.66 | 0.00 | 96 | 1011.7 |
| 20260509084303 | 16 | 238 | 0.0 | 0.0 | 0.00 | 0.66 | 0.00 | 96 | 1011.8 |
| 20260509084203 | 16 | 238 | 0.0 | 1.6 | 0.00 | 0.66 | 0.00 | 96 | 1011.8 |
| 20260509084102 | 16 | 159 | 0.0 | 1.6 | 0.00 | 0.66 | 0.00 | 96 | 1011.8 |
| 20260509084006 | 16 | 293 | 0.0 | 1.6 | 0.00 | 0.66 | 0.00 | 96 | 1011.8 |
| 20260509083802 | 16 | 290 | 0.0 | 1.6 | 0.00 | 0.66 | 0.00 | 96 | 1011.8 |
| 20260509083603 | 17 | 292 | 0.0 | 1.6 | 0.00 | 0.66 | 0.00 | 96 | 1011.8 |
| 20260509083506 | 16 | 291 | 0.0 | 1.6 | 0.00 | 0.66 | 0.00 | 96 | 1011.8 |
| 20260509083401 | 16 | 292 | 0.0 | 1.6 | 0.00 | 0.66 | 0.00 | 96 | 1011.8 |
| 20260509083302 | 16 | 293 | 0.0 | 1.6 | 0.00 | 0.66 | 0.00 | 96 | 1011.8 |
| 20260509083203 | 16 | 245 | 0.0 | 3.2 | 0.00 | 0.66 | 0.00 | 96 | 1011.9 |
| 20260509083103 | 16 | 153 | 0.0 | 3.2 | 0.00 | 0.66 | 0.00 | 96 | 1011.8 |
| 20260509083007 | 16 | 153 | 0.0 | 3.2 | 0.00 | 0.66 | 0.00 | 96 | 1011.8 |
| 20260509082902 | 16 | 153 | 0.0 | 3.2 | 0.00 | 0.66 | 0.00 | 96 | 1011.8 |
| 20260509082802 | 16 | 153 | 0.0 | 3.2 | 0.00 | 0.66 | 0.00 | 96 | 1011.9 |
| 20260509082702 | 16 | 153 | 0.0 | 3.2 | 0.00 | 0.66 | 0.00 | 96 | 1011.9 |
| 20260509082602 | 16 | 153 | 0.0 | 3.2 | 0.00 | 0.66 | 0.00 | 96 | 1011.9 |
| 20260509082506 | 16 | 153 | 0.0 | 3.2 | 0.00 | 0.66 | 0.00 | 96 | 1011.9 |
| 20260509082403 | 16 | 153 | 0.0 | 3.2 | 0.00 | 0.66 | 0.00 | 96 | 1011.9 |
| 20260509082306 | 16 | 153 | 0.0 | 3.2 | 0.00 | 0.66 | 0.00 | 96 | 1011.9 |
| 20260509082202 | 16 | 127 | 0.0 | 3.2 | 0.00 | 0.66 | 0.00 | 96 | 1011.9 |
| 20260509082103 | 16 | 148 | 0.0 | 3.2 | 0.00 | 0.66 | 0.00 | 96 | 1011.9 |
| 20260509082005 | 16 | 148 | 0.0 | 3.2 | 0.00 | 0.66 | 0.00 | 96 | 1011.9 |
| 20260509081903 | 16 | 148 | 0.0 | 3.2 | 0.00 | 0.66 | 0.00 | 96 | 1012.0 |
| 20260509081803 | 16 | 174 | 3.2 | 3.2 | 0.00 | 0.66 | 0.00 | 96 | 1012.0 |
| 20260509081701 | 16 | 277 | 0.0 | 3.2 | 0.00 | 0.66 | 0.00 | 96 | 1012.0 |
| 20260509081506 | 16 | 255 | 0.0 | 3.2 | 0.00 | 0.66 | 0.00 | 96 | 1012.0 |
| 20260509081401 | 17 | 255 | 0.0 | 3.2 | 0.00 | 0.66 | 0.00 | 96 | 1012.1 |
| 20260509081302 | 17 | 248 | 0.0 | 3.2 | 0.00 | 0.66 | 0.00 | 96 | 1012.0 |
| 20260509081202 | 16 | 271 | 0.0 | 1.6 | 0.00 | 0.66 | 0.00 | 96 | 1012.0 |
| 20260509081103 | 16 | 231 | 0.0 | 1.6 | 0.00 | 0.66 | 0.00 | 96 | 1012.1 |
| 20260509081007 | 16 | 231 | 0.0 | 3.2 | 0.00 | 0.66 | 0.00 | 96 | 1012.1 |
| 20260509080902 | 16 | 231 | 0.0 | 4.8 | 0.00 | 0.66 | 0.00 | 96 | 1012.0 |
| 20260509080802 | 16 | 231 | 0.0 | 4.8 | 0.00 | 0.66 | 0.00 | 96 | 1012.0 |
| 20260509080702 | 16 | 231 | 0.0 | 4.8 | 0.00 | 0.66 | 0.00 | 96 | 1012.1 |
| 20260509080604 | 16 | 231 | 0.0 | 4.8 | 0.00 | 0.66 | 0.00 | 96 | 1012.1 |
| 20260509080402 | 17 | 231 | 0.0 | 4.8 | 0.00 | 0.66 | 0.00 | 96 | 1012.1 |
| 20260509080202 | 17 | 230 | 0.0 | 4.8 | 0.00 | 0.66 | 0.00 | 96 | 1012.1 |
| 20260509080006 | 17 | 272 | 0.0 | 4.8 | 0.00 | 0.66 | 0.00 | 96 | 1012.0 |
| 20260509075901 | 17 | 278 | 0.0 | 4.8 | 0.00 | 0.66 | 0.00 | 96 | 1012.0 |
| 20260509075801 | 17 | 262 | 0.0 | 4.8 | 0.00 | 0.66 | 0.00 | 96 | 1012.0 |
| 20260509075701 | 16 | 250 | 0.0 | 4.8 | 0.00 | 0.66 | 0.00 | 96 | 1012.0 |
| 20260509075401 | 16 | 212 | 0.0 | 0.0 | 0.00 | 0.66 | 0.00 | 96 | 1011.9 |
| 20260509075300 | 16 | 212 | 0.0 | 1.6 | 0.00 | 0.66 | 0.00 | 96 | 1011.7 |
| 20260509075201 | 16 | 212 | 0.0 | 1.6 | 0.00 | 0.66 | 0.00 | 96 | 1011.8 |
| 20260509075006 | 16 | 212 | 0.0 | 1.6 | 0.00 | 0.66 | 0.00 | 96 | 1011.7 |
| 20260509074901 | 16 | 212 | 0.0 | 1.6 | 0.00 | 0.66 | 0.00 | 96 | 1011.7 |
| 20260509074701 | 17 | 212 | 0.0 | 1.6 | 0.00 | 0.66 | 0.00 | 96 | 1011.7 |
| 20260509074601 | 16 | 212 | 0.0 | 1.6 | 0.00 | 0.66 | 0.00 | 96 | 1011.8 |
| 20260509074506 | 16 | 212 | 0.0 | 1.6 | 0.00 | 0.66 | 0.00 | 96 | 1011.8 |
| 20260509074202 | 16 | 238 | 0.0 | 4.8 | 0.00 | 0.66 | 0.00 | 96 | 1011.8 |
| 20260509074006 | 16 | 238 | 0.0 | 4.8 | 0.00 | 0.66 | 0.00 | 96 | 1011.7 |
| 20260509073901 | 17 | 238 | 0.0 | 4.8 | 0.00 | 0.66 | 0.00 | 96 | 1011.8 |
| 20260509073700 | 17 | 238 | 0.0 | 4.8 | 0.00 | 0.66 | 0.00 | 96 | 1011.8 |
| 20260509073601 | 17 | 238 | 0.0 | 4.8 | 0.00 | 0.66 | 0.00 | 96 | 1011.8 |
| 20260509073505 | 17 | 255 | 1.6 | 4.8 | 0.00 | 0.66 | 0.00 | 96 | 1011.8 |
| 20260509073201 | 17 | 245 | 3.2 | 4.8 | 0.00 | 0.66 | 0.00 | 96 | 1011.7 |
| 20260509073102 | 17 | 248 | 3.2 | 4.8 | 0.00 | 0.66 | 0.00 | 96 | 1011.8 |
| 20260509073007 | 17 | 210 | 0.0 | 4.8 | 0.00 | 0.66 | 0.00 | 96 | 1011.8 |
| 20260509072901 | 17 | 210 | 0.0 | 4.8 | 0.00 | 0.66 | 0.00 | 96 | 1011.8 |
| 20260509072701 | 17 | 244 | 0.0 | 4.8 | 0.00 | 0.66 | 0.00 | 96 | 1011.9 |
| 20260509072601 | 17 | 264 | 0.0 | 4.8 | 0.00 | 0.66 | 0.00 | 96 | 1012.0 |
| 20260509072505 | 17 | 264 | 0.0 | 4.8 | 0.00 | 0.66 | 0.00 | 96 | 1012.0 |
| 20260509072301 | 17 | 246 | 3.2 | 4.8 | 0.00 | 0.66 | 0.00 | 96 | 1012.2 |
| 20260509072202 | 17 | 238 | 3.2 | 3.2 | 0.00 | 0.66 | 0.00 | 96 | 1012.2 |
| 20260509072102 | 17 | 278 | 1.6 | 3.2 | 0.00 | 0.66 | 0.00 | 96 | 1012.2 |
| 20260509072005 | 17 | 245 | 0.0 | 3.2 | 0.00 | 0.66 | 0.00 | 96 | 1012.2 |
| 20260509071902 | 17 | 245 | 0.0 | 4.8 | 0.00 | 0.66 | 0.00 | 96 | 1012.2 |
| 20260509071801 | 17 | 245 | 0.0 | 4.8 | 0.00 | 0.66 | 0.00 | 96 | 1012.2 |
| 20260509071701 | 17 | 245 | 0.0 | 4.8 | 0.00 | 0.66 | 0.00 | 96 | 1012.3 |
| 20260509071601 | 17 | 245 | 0.0 | 4.8 | 0.00 | 0.66 | 0.00 | 96 | 1012.3 |
| 20260509071505 | 17 | 245 | 0.0 | 4.8 | 0.00 | 0.66 | 0.00 | 96 | 1012.3 |
| 20260509071401 | 17 | 259 | 0.0 | 4.8 | 0.00 | 0.66 | 0.00 | 96 | 1012.3 |
| 20260509071302 | 17 | 248 | 0.0 | 4.8 | 0.00 | 0.66 | 0.00 | 96 | 1012.2 |
| 20260509071201 | 17 | 234 | 0.0 | 4.8 | 0.00 | 0.66 | 0.00 | 96 | 1012.2 |
| 20260509071101 | 17 | 250 | 3.2 | 4.8 | 0.00 | 0.66 | 0.00 | 96 | 1012.2 |
| 20260509071005 | 17 | 255 | 0.0 | 4.8 | 0.00 | 0.66 | 0.00 | 96 | 1012.2 |
| 20260509070901 | 17 | 244 | 0.0 | 4.8 | 0.00 | 0.66 | 0.00 | 96 | 1012.1 |
| 20260509070803 | 17 | 252 | 1.6 | 4.8 | 0.00 | 0.66 | 0.00 | 96 | 1012.1 |
| 20260509070703 | 17 | 260 | 4.8 | 4.8 | 0.00 | 0.66 | 0.00 | 96 | 1012.0 |
| 20260509070602 | 17 | 255 | 3.2 | 4.8 | 0.00 | 0.66 | 0.00 | 96 | 1012.0 |
| 20260509070505 | 17 | 262 | 3.2 | 4.8 | 0.00 | 0.66 | 0.00 | 96 | 1012.0 |
| 20260509070401 | 17 | 248 | 1.6 | 3.2 | 0.00 | 0.66 | 0.00 | 96 | 1011.9 |
| 20260509070301 | 17 | 248 | 3.2 | 3.2 | 0.00 | 0.66 | 0.00 | 96 | 1011.8 |
| 20260509070201 | 17 | 169 | 0.0 | 3.2 | 0.00 | 0.66 | 0.00 | 96 | 1011.8 |
| 20260509070006 | 17 | 227 | 0.0 | 3.2 | 0.00 | 0.66 | 0.00 | 96 | 1011.8 |
| 20260509065902 | 17 | 227 | 0.0 | 3.2 | 0.00 | 0.66 | 0.00 | 96 | 1011.7 |
| 20260509065802 | 17 | 227 | 0.0 | 3.2 | 0.00 | 0.66 | 0.00 | 96 | 1011.7 |
| 20260509065701 | 17 | 227 | 0.0 | 3.2 | 0.00 | 0.66 | 0.00 | 96 | 1011.8 |
| 20260509065602 | 17 | 227 | 0.0 | 3.2 | 0.00 | 0.66 | 0.00 | 96 | 1011.8 |
| 20260509065505 | 17 | 227 | 0.0 | 4.8 | 0.00 | 0.66 | 0.00 | 96 | 1011.8 |
| 20260509065402 | 17 | 227 | 0.0 | 4.8 | 0.00 | 0.66 | 0.00 | 96 | 1011.9 |
| 20260509065202 | 17 | 201 | 0.0 | 4.8 | 0.00 | 0.66 | 0.00 | 96 | 1011.9 |
| 20260509065101 | 17 | 174 | 0.0 | 4.8 | 0.00 | 0.66 | 0.00 | 96 | 1011.9 |
| 20260509065005 | 17 | 195 | 0.0 | 4.8 | 0.00 | 0.66 | 0.00 | 96 | 1011.9 |
| 20260509064801 | 17 | 235 | 0.0 | 4.8 | 0.00 | 0.66 | 0.00 | 96 | 1012.0 |
| 20260509064601 | 17 | 275 | 3.2 | 3.2 | 0.00 | 0.66 | 0.00 | 96 | 1012.1 |
| 20260509064301 | 17 | 233 | 0.0 | 3.2 | 0.00 | 0.66 | 0.00 | 96 | 1012.1 |
| 20260509064201 | 17 | 233 | 0.0 | 4.8 | 0.00 | 0.66 | 0.00 | 95 | 1012.1 |
| 20260509064006 | 17 | 233 | 0.0 | 4.8 | 0.00 | 0.66 | 0.00 | 95 | 1012.0 |
| 20260509063901 | 17 | 233 | 0.0 | 4.8 | 0.00 | 0.66 | 0.00 | 95 | 1012.2 |
| 20260509063601 | 17 | 238 | 0.0 | 4.8 | 0.00 | 0.66 | 0.00 | 95 | 1012.2 |
| 20260509063505 | 17 | 248 | 0.0 | 4.8 | 0.00 | 0.66 | 0.00 | 95 | 1012.2 |
| 20260509063301 | 17 | 272 | 3.2 | 4.8 | 0.00 | 0.66 | 0.00 | 95 | 1012.1 |
| 20260509063201 | 17 | 286 | 0.0 | 1.6 | 0.00 | 0.66 | 0.00 | 95 | 1012.1 |
| 20260509063103 | 17 | 230 | 0.0 | 1.6 | 0.00 | 0.66 | 0.00 | 95 | 1012.0 |
| 20260509063005 | 17 | 230 | 0.0 | 1.6 | 0.00 | 0.66 | 0.00 | 95 | 1012.0 |
| 20260509062902 | 17 | 230 | 0.0 | 1.6 | 0.00 | 0.66 | 0.00 | 95 | 1012.1 |
| 20260509062801 | 17 | 230 | 0.0 | 3.2 | 0.00 | 0.66 | 0.00 | 95 | 1012.0 |
| 20260509062701 | 17 | 230 | 0.0 | 3.2 | 0.00 | 0.66 | 0.00 | 96 | 1012.0 |
| 20260509062601 | 17 | 230 | 0.0 | 3.2 | 0.00 | 0.66 | 0.00 | 96 | 1012.1 |
| 20260509062505 | 17 | 230 | 0.0 | 3.2 | 0.00 | 0.66 | 0.00 | 96 | 1012.1 |
| 20260509062401 | 17 | 243 | 1.6 | 3.2 | 0.00 | 0.66 | 0.00 | 96 | 1012.2 |
| 20260509062301 | 17 | 292 | 0.0 | 3.2 | 0.00 | 0.66 | 0.00 | 96 | 1012.2 |
| 20260509062201 | 17 | 252 | 0.0 | 3.2 | 0.00 | 0.66 | 0.00 | 96 | 1012.2 |
| 20260509062005 | 17 | 311 | 1.6 | 3.2 | 0.00 | 0.66 | 0.00 | 96 | 1012.1 |
| 20260509061902 | 17 | 316 | 1.6 | 1.6 | 0.00 | 0.66 | 0.00 | 96 | 1012.0 |
| 20260509061802 | 17 | 306 | 0.0 | 0.0 | 0.00 | 0.66 | 0.00 | 95 | 1012.0 |
| 20260509061601 | 17 | 306 | 0.0 | 0.0 | 0.00 | 0.66 | 0.00 | 95 | 1012.0 |
| 20260509061505 | 17 | 306 | 0.0 | 1.6 | 0.00 | 0.66 | 0.00 | 95 | 1012.0 |
| 20260509061401 | 17 | 306 | 0.0 | 1.6 | 0.00 | 0.66 | 0.00 | 95 | 1012.2 |
| 20260509061300 | 17 | 306 | 0.0 | 1.6 | 0.00 | 0.66 | 0.00 | 95 | 1012.3 |
| 20260509061202 | 17 | 306 | 0.0 | 1.6 | 0.00 | 0.66 | 0.00 | 95 | 1012.3 |
| 20260509061102 | 17 | 306 | 0.0 | 1.6 | 0.00 | 0.66 | 0.00 | 95 | 1012.3 |
| 20260509060901 | 17 | 306 | 0.0 | 1.6 | 0.00 | 0.66 | 0.00 | 95 | 1012.2 |
| 20260509060702 | 17 | 288 | 0.0 | 1.6 | 0.00 | 0.66 | 0.00 | 95 | 1012.2 |
| 20260509060504 | 17 | 238 | 0.0 | 0.0 | 0.00 | 0.66 | 0.00 | 95 | 1012.1 |
| 20260509060400 | 17 | 238 | 0.0 | 0.0 | 0.00 | 0.66 | 0.00 | 95 | 1012.1 |
| 20260509060202 | 17 | 238 | 0.0 | 1.6 | 0.00 | 0.66 | 0.00 | 95 | 1012.1 |
| 20260509060007 | 17 | 238 | 0.0 | 1.6 | 0.00 | 0.66 | 0.00 | 95 | 1012.1 |
| 20260509055903 | 17 | 238 | 0.0 | 1.6 | 0.00 | 0.66 | 0.00 | 95 | 1012.1 |
| 20260509055703 | 17 | 218 | 0.0 | 1.6 | 0.00 | 0.66 | 0.00 | 95 | 1012.3 |
| 20260509055603 | 17 | 206 | 0.0 | 1.6 | 0.00 | 0.66 | 0.00 | 95 | 1012.3 |
| 20260509055506 | 17 | 206 | 0.0 | 1.6 | 0.00 | 0.66 | 0.00 | 95 | 1012.3 |
| 20260509055403 | 17 | 167 | 0.0 | 1.6 | 0.00 | 0.66 | 0.00 | 95 | 1012.3 |
| 20260509055203 | 17 | 237 | 0.0 | 0.0 | 0.00 | 0.66 | 0.00 | 95 | 1012.3 |
| 20260509055104 | 17 | 237 | 0.0 | 0.0 | 0.00 | 0.66 | 0.00 | 95 | 1012.3 |
| 20260509055008 | 17 | 237 | 0.0 | 0.0 | 0.00 | 0.66 | 0.00 | 95 | 1012.4 |
| 20260509054904 | 17 | 237 | 0.0 | 0.0 | 0.00 | 0.66 | 0.00 | 95 | 1012.4 |
| 20260509054803 | 17 | 237 | 0.0 | 0.0 | 0.00 | 0.66 | 0.00 | 95 | 1012.4 |
| 20260509054703 | 17 | 237 | 0.0 | 0.0 | 0.00 | 0.66 | 0.00 | 95 | 1012.3 |
| 20260509054602 | 17 | 237 | 0.0 | 0.0 | 0.00 | 0.66 | 0.00 | 95 | 1012.4 |
| 20260509054506 | 17 | 237 | 0.0 | 0.0 | 0.00 | 0.66 | 0.00 | 95 | 1012.4 |
| 20260509054403 | 17 | 237 | 0.0 | 1.6 | 0.00 | 0.66 | 0.00 | 95 | 1012.4 |
| 20260509054303 | 17 | 237 | 0.0 | 1.6 | 0.00 | 0.66 | 0.00 | 95 | 1012.5 |
| 20260509054203 | 17 | 237 | 0.0 | 1.6 | 0.00 | 0.66 | 0.00 | 95 | 1012.5 |
| 20260509054104 | 17 | 237 | 0.0 | 1.6 | 0.00 | 0.66 | 0.00 | 95 | 1012.5 |
| 20260509054005 | 17 | 237 | 0.0 | 1.6 | 0.00 | 0.66 | 0.00 | 95 | 1012.5 |
| 20260509053903 | 17 | 237 | 0.0 | 1.6 | 0.00 | 0.66 | 0.00 | 95 | 1012.4 |
| 20260509053803 | 17 | 237 | 0.0 | 1.6 | 0.00 | 0.66 | 0.00 | 95 | 1012.4 |
| 20260509053703 | 17 | 237 | 0.0 | 1.6 | 0.00 | 0.66 | 0.00 | 95 | 1012.5 |
| 20260509053506 | 17 | 243 | 0.0 | 1.6 | 0.00 | 0.66 | 0.00 | 95 | 1012.4 |
| 20260509053404 | 17 | 246 | 0.0 | 1.6 | 0.00 | 0.66 | 0.00 | 95 | 1012.3 |
| 20260509053303 | 17 | 246 | 0.0 | 1.6 | 0.00 | 0.66 | 0.00 | 95 | 1012.2 |
| 20260509053204 | 17 | 246 | 0.0 | 1.6 | 0.00 | 0.66 | 0.00 | 95 | 1012.2 |
| 20260509053007 | 17 | 237 | 0.0 | 3.2 | 0.00 | 0.66 | 0.00 | 95 | 1012.3 |
| 20260509052902 | 17 | 244 | 0.0 | 3.2 | 0.00 | 0.66 | 0.00 | 95 | 1012.2 |
| 20260509052803 | 17 | 244 | 0.0 | 4.8 | 0.00 | 0.66 | 0.00 | 95 | 1012.2 |
| 20260509052703 | 17 | 247 | 0.0 | 4.8 | 0.00 | 0.66 | 0.00 | 95 | 1012.1 |
| 20260509052603 | 17 | 54 | 0.0 | 4.8 | 0.00 | 0.66 | 0.00 | 95 | 1012.1 |
| 20260509052505 | 17 | 54 | 0.0 | 4.8 | 0.00 | 0.66 | 0.00 | 95 | 1012.1 |
| 20260509052402 | 17 | 54 | 0.0 | 4.8 | 0.00 | 0.66 | 0.00 | 95 | 1012.0 |
| 20260509052306 | 17 | 54 | 0.0 | 4.8 | 0.00 | 0.66 | 0.00 | 95 | 1012.0 |
| 20260509052204 | 17 | 141 | 0.0 | 4.8 | 0.00 | 0.66 | 0.00 | 95 | 1012.0 |
| 20260509052103 | 17 | 141 | 0.0 | 4.8 | 0.00 | 0.66 | 0.00 | 95 | 1012.1 |
| 20260509051904 | 17 | 247 | 0.0 | 4.8 | 0.00 | 0.66 | 0.00 | 95 | 1012.1 |
| 20260509051804 | 17 | 197 | 0.0 | 4.8 | 0.00 | 0.66 | 0.00 | 95 | 1012.1 |
| 20260509051403 | 17 | 139 | 3.2 | 3.2 | 0.00 | 0.66 | 0.00 | 95 | 1012.3 |
| 20260509051204 | 17 | 211 | 0.0 | 3.2 | 0.00 | 0.66 | 0.00 | 95 | 1012.3 |
| 20260509051006 | 17 | 113 | 1.6 | 4.8 | 0.00 | 0.66 | 0.00 | 95 | 1012.3 |
| 20260509050903 | 17 | 141 | 0.0 | 4.8 | 0.00 | 0.66 | 0.00 | 95 | 1012.3 |
| 20260509050803 | 17 | 61 | 0.0 | 4.8 | 0.00 | 0.66 | 0.00 | 95 | 1012.4 |
| 20260509050702 | 17 | 103 | 0.0 | 4.8 | 0.00 | 0.66 | 0.00 | 95 | 1012.5 |
| 20260509050604 | 17 | 108 | 0.0 | 4.8 | 0.00 | 0.66 | 0.00 | 95 | 1012.5 |
| 20260509050506 | 17 | 103 | 0.0 | 4.8 | 0.00 | 0.66 | 0.00 | 95 | 1012.5 |
| 20260509050404 | 17 | 122 | 3.2 | 4.8 | 0.00 | 0.66 | 0.00 | 95 | 1012.5 |
| 20260509050011 | 17 | 153 | 1.6 | 4.8 | 0.00 | 0.66 | 0.00 | 95 | 1012.6 |
| 20260509045905 | 17 | 169 | 3.2 | 4.8 | 0.00 | 0.66 | 0.66 | 95 | 1012.5 |
| 20260509045805 | 17 | 146 | 0.0 | 4.8 | 0.00 | 0.66 | 0.66 | 95 | 1012.6 |
| 20260509045705 | 17 | 141 | 0.0 | 4.8 | 0.00 | 0.66 | 0.66 | 95 | 1012.9 |
| 20260509045306 | 17 | 306 | 1.6 | 4.8 | 0.00 | 0.66 | 0.66 | 95 | 1013.1 |
| 20260509045204 | 17 | 319 | 0.0 | 4.8 | 0.00 | 0.66 | 0.66 | 95 | 1013.0 |
| 20260509045104 | 17 | 323 | 4.8 | 4.8 | 0.00 | 0.66 | 0.66 | 95 | 1012.9 |
| 20260509045007 | 17 | 304 | 4.8 | 4.8 | 0.00 | 0.66 | 0.66 | 95 | 1012.9 |
| 20260509044905 | 17 | 319 | 3.2 | 3.2 | 0.00 | 0.66 | 0.66 | 95 | 1012.7 |
| 20260509044804 | 17 | 65 | 0.0 | 3.2 | 0.00 | 0.66 | 0.66 | 95 | 1012.6 |
| 20260509044703 | 17 | 65 | 0.0 | 3.2 | 0.00 | 0.66 | 0.66 | 94 | 1012.7 |
| 20260509044604 | 17 | 65 | 0.0 | 3.2 | 0.00 | 0.66 | 0.66 | 94 | 1012.4 |
| 20260509044506 | 17 | 65 | 0.0 | 3.2 | 0.00 | 0.66 | 0.66 | 94 | 1012.4 |
| 20260509044405 | 17 | 65 | 0.0 | 3.2 | 0.00 | 0.66 | 0.66 | 94 | 1012.5 |
| 20260509044204 | 17 | 358 | 0.0 | 4.8 | 0.00 | 0.66 | 0.66 | 94 | 1012.5 |
| 20260509044105 | 17 | 358 | 0.0 | 4.8 | 0.00 | 0.66 | 0.66 | 94 | 1012.6 |
| 20260509044007 | 17 | 358 | 0.0 | 4.8 | 0.00 | 0.66 | 0.66 | 94 | 1012.7 |
| 20260509043903 | 17 | 24 | 0.0 | 4.8 | 0.00 | 0.66 | 0.66 | 94 | 1012.8 |
| 20260509043803 | 17 | 231 | 0.0 | 4.8 | 0.00 | 0.66 | 0.66 | 94 | 1012.8 |
| 20260509043704 | 17 | 231 | 0.0 | 4.8 | 0.00 | 0.66 | 0.66 | 94 | 1012.8 |
| 20260509043604 | 17 | 231 | 0.0 | 4.8 | 0.00 | 0.66 | 0.66 | 94 | 1013.0 |
| 20260509043508 | 17 | 232 | 0.0 | 4.8 | 0.00 | 0.66 | 0.66 | 94 | 1013.0 |
| 20260509043304 | 17 | 301 | 0.0 | 4.8 | 0.00 | 0.66 | 0.66 | 94 | 1012.6 |
| 20260509043205 | 17 | 311 | 3.2 | 4.8 | 0.00 | 0.66 | 0.66 | 94 | 1012.8 |
| 20260509043104 | 17 | 257 | 0.0 | 4.8 | 0.00 | 0.66 | 0.66 | 94 | 1012.8 |
| 20260509042804 | 17 | 301 | 0.0 | 4.8 | 0.00 | 0.66 | 0.66 | 94 | 1012.8 |
| 20260509042704 | 17 | 297 | 0.0 | 4.8 | 0.00 | 0.66 | 0.66 | 94 | 1012.8 |
| 20260509042605 | 17 | 328 | 0.0 | 4.8 | 0.00 | 0.66 | 0.66 | 94 | 1012.8 |
| 20260509042506 | 17 | 360 | 3.2 | 4.8 | 0.00 | 0.66 | 0.66 | 94 | 1012.6 |
| 20260509042404 | 17 | 286 | 0.0 | 4.8 | 0.00 | 0.66 | 0.66 | 94 | 1012.6 |
| 20260509042307 | 17 | 266 | 0.0 | 3.2 | 0.00 | 0.66 | 0.66 | 94 | 1012.6 |
| 20260509042104 | 17 | 263 | 0.0 | 3.2 | 0.00 | 0.66 | 0.66 | 94 | 1012.6 |
| 20260509041905 | 17 | 62 | 0.0 | 3.2 | 0.00 | 0.66 | 0.66 | 94 | 1012.5 |
| 20260509041804 | 17 | 137 | 1.6 | 3.2 | 0.00 | 0.66 | 0.66 | 94 | 1012.4 |
| 20260509041705 | 17 | 233 | 0.0 | 3.2 | 0.00 | 0.66 | 0.66 | 94 | 1012.6 |
| 20260509041605 | 17 | 139 | 0.0 | 6.4 | 0.00 | 0.66 | 0.66 | 94 | 1012.6 |
| 20260509041404 | 17 | 148 | 0.0 | 6.4 | 0.00 | 0.66 | 0.66 | 94 | 1012.6 |
| 20260509041304 | 17 | 148 | 0.0 | 6.4 | 0.00 | 0.66 | 0.66 | 94 | 1012.6 |
| 20260509041205 | 17 | 203 | 3.2 | 6.4 | 0.00 | 0.66 | 0.66 | 94 | 1012.7 |
| 20260509041104 | 17 | 231 | 0.0 | 6.4 | 0.00 | 0.66 | 0.66 | 94 | 1012.6 |
| 20260509041006 | 17 | 316 | 0.0 | 6.4 | 0.00 | 0.66 | 0.66 | 94 | 1012.6 |
| 20260509040904 | 17 | 295 | 0.0 | 6.4 | 0.00 | 0.66 | 0.66 | 94 | 1012.5 |
| 20260509040804 | 17 | 205 | 0.0 | 6.4 | 0.00 | 0.66 | 0.66 | 94 | 1012.4 |
| 20260509040703 | 17 | 158 | 4.8 | 6.4 | 0.00 | 0.66 | 0.66 | 94 | 1012.4 |
| 20260509040603 | 17 | 179 | 1.6 | 3.2 | 0.00 | 0.66 | 0.66 | 94 | 1012.4 |
| 20260509040404 | 17 | 89 | 0.0 | 1.6 | 0.00 | 0.66 | 0.66 | 94 | 1012.5 |
| 20260509040304 | 17 | 73 | 1.6 | 1.6 | 0.00 | 0.66 | 0.66 | 94 | 1012.5 |
| 20260509040203 | 17 | 155 | 0.0 | 1.6 | 0.00 | 0.66 | 0.66 | 94 | 1012.5 |
| 20260509040104 | 17 | 235 | 0.0 | 3.2 | 0.00 | 0.66 | 0.66 | 94 | 1012.5 |
| 20260509040008 | 17 | 235 | 0.0 | 3.2 | 0.00 | 0.66 | 0.66 | 94 | 1012.6 |
| 20260509035904 | 17 | 235 | 0.0 | 3.2 | 0.00 | 0.66 | 0.66 | 94 | 1012.7 |
| 20260509035803 | 17 | 235 | 0.0 | 3.2 | 0.03 | 0.66 | 0.66 | 94 | 1012.6 |
| 20260509035704 | 17 | 235 | 0.0 | 3.2 | 0.03 | 0.66 | 0.66 | 94 | 1012.8 |
| 20260509035603 | 17 | 235 | 0.0 | 3.2 | 0.03 | 0.66 | 0.66 | 94 | 1012.7 |
| 20260509035403 | 17 | 72 | 0.0 | 3.2 | 0.03 | 0.66 | 0.66 | 94 | 1012.5 |
| 20260509035306 | 17 | 72 | 0.0 | 4.8 | 0.03 | 0.66 | 0.66 | 94 | 1012.6 |
| 20260509035203 | 17 | 72 | 0.0 | 4.8 | 0.03 | 0.66 | 0.66 | 94 | 1012.7 |
| 20260509035103 | 17 | 319 | 0.0 | 4.8 | 0.03 | 0.66 | 0.66 | 94 | 1012.7 |
| 20260509035006 | 17 | 319 | 0.0 | 4.8 | 0.03 | 0.66 | 0.66 | 94 | 1012.7 |
| 20260509034704 | 17 | 358 | 0.0 | 4.8 | 0.05 | 0.66 | 0.66 | 94 | 1012.8 |
| 20260509034505 | 17 | 10 | 0.0 | 4.8 | 0.05 | 0.66 | 0.66 | 94 | 1012.9 |
| 20260509034402 | 17 | 344 | 3.2 | 4.8 | 0.08 | 0.66 | 0.66 | 94 | 1013.0 |
| 20260509034204 | 17 | 13 | 0.0 | 3.2 | 0.08 | 0.66 | 0.66 | 94 | 1013.0 |
| 20260509034103 | 17 | 58 | 0.0 | 3.2 | 0.08 | 0.66 | 0.66 | 94 | 1013.0 |
| 20260509034007 | 17 | 58 | 0.0 | 3.2 | 0.08 | 0.66 | 0.66 | 94 | 1013.0 |
| 20260509033902 | 17 | 45 | 3.2 | 4.8 | 0.08 | 0.66 | 0.66 | 94 | 1013.0 |
| 20260509033803 | 17 | 335 | 0.0 | 4.8 | 0.08 | 0.66 | 0.66 | 94 | 1013.0 |
| 20260509033704 | 17 | 104 | 0.0 | 4.8 | 0.08 | 0.66 | 0.66 | 94 | 1013.0 |
| 20260509033603 | 17 | 104 | 0.0 | 4.8 | 0.08 | 0.66 | 0.66 | 94 | 1013.0 |
| 20260509033505 | 17 | 58 | 0.0 | 4.8 | 0.08 | 0.66 | 0.66 | 94 | 1013.0 |
| 20260509033303 | 17 | 283 | 0.0 | 4.8 | 0.08 | 0.66 | 0.66 | 94 | 1013.0 |
| 20260509033203 | 17 | 321 | 0.0 | 4.8 | 0.08 | 0.66 | 0.66 | 94 | 1012.9 |
| 20260509033103 | 17 | 321 | 0.0 | 6.4 | 0.08 | 0.66 | 0.66 | 94 | 1012.8 |
| 20260509033008 | 17 | 205 | 0.0 | 6.4 | 0.08 | 0.66 | 0.66 | 94 | 1012.8 |
| 20260509032804 | 17 | 30 | 3.2 | 6.4 | 0.08 | 0.66 | 0.66 | 94 | 1012.8 |
| 20260509032603 | 17 | 66 | 1.6 | 8.0 | 0.08 | 0.66 | 0.66 | 94 | 1012.7 |
| 20260509032506 | 17 | 150 | 3.2 | 8.0 | 0.08 | 0.66 | 0.66 | 94 | 1012.7 |
| 20260509032403 | 17 | 171 | 0.0 | 8.0 | 0.08 | 0.66 | 0.66 | 94 | 1012.7 |
| 20260509032306 | 17 | 234 | 0.0 | 8.0 | 0.08 | 0.66 | 0.66 | 94 | 1012.7 |
| 20260509032203 | 17 | 297 | 0.0 | 8.0 | 0.08 | 0.66 | 0.66 | 94 | 1012.7 |
| 20260509032103 | 17 | 120 | 3.2 | 8.0 | 0.08 | 0.66 | 0.66 | 94 | 1012.4 |
| 20260509031804 | 17 | 157 | 3.2 | 6.4 | 0.08 | 0.66 | 0.66 | 94 | 1012.1 |
| 20260509031702 | 17 | 225 | 6.4 | 6.4 | 0.08 | 0.66 | 0.66 | 94 | 1011.7 |
| 20260509031604 | 17 | 141 | 6.4 | 8.0 | 0.08 | 0.66 | 0.66 | 94 | 1011.5 |
| 20260509031505 | 17 | 102 | 0.0 | 8.0 | 0.08 | 0.66 | 0.66 | 94 | 1011.5 |
| 20260509031404 | 17 | 285 | 3.2 | 8.0 | 0.08 | 0.66 | 0.66 | 94 | 1011.5 |
| 20260509031303 | 17 | 162 | 4.8 | 8.0 | 0.08 | 0.66 | 0.66 | 94 | 1011.4 |
| 20260509031203 | 17 | 281 | 0.0 | 9.7 | 0.08 | 0.66 | 0.66 | 94 | 1011.4 |
| 20260509031103 | 17 | 68 | 0.0 | 11.3 | 0.08 | 0.66 | 0.66 | 94 | 1011.6 |
| 20260509031006 | 17 | 131 | 4.8 | 12.9 | 0.08 | 0.66 | 0.66 | 93 | 1011.6 |
| 20260509030903 | 17 | 358 | 0.0 | 12.9 | 0.08 | 0.66 | 0.66 | 93 | 1011.4 |
| 20260509030803 | 17 | 113 | 0.0 | 12.9 | 0.08 | 0.66 | 0.66 | 94 | 1011.3 |
| 20260509030703 | 17 | 120 | 4.8 | 12.9 | 0.08 | 0.66 | 0.66 | 94 | 1011.2 |
| 20260509030603 | 17 | 234 | 1.6 | 12.9 | 0.08 | 0.66 | 0.66 | 94 | 1011.3 |
| 20260509030506 | 17 | 157 | 4.8 | 12.9 | 0.08 | 0.66 | 0.66 | 94 | 1011.3 |
| 20260509030404 | 17 | 153 | 4.8 | 12.9 | 0.08 | 0.66 | 0.66 | 94 | 1011.2 |
| 20260509030303 | 17 | 122 | 4.8 | 12.9 | 0.08 | 0.66 | 0.66 | 94 | 1011.2 |
| 20260509030203 | 17 | 134 | 8.0 | 12.9 | 0.08 | 0.66 | 0.66 | 94 | 1011.4 |
| 20260509030104 | 17 | 148 | 9.7 | 12.9 | 0.08 | 0.66 | 0.66 | 94 | 1011.8 |
| 20260509025903 | 18 | 146 | 8.0 | 12.9 | 0.08 | 0.66 | 0.66 | 93 | 1012.7 |
| 20260509025803 | 18 | 139 | 8.0 | 12.9 | 0.05 | 0.64 | 0.64 | 94 | 1012.9 |
| 20260509025703 | 18 | 111 | 6.4 | 12.9 | 0.05 | 0.64 | 0.64 | 94 | 1013.2 |
| 20260509025603 | 18 | 141 | 4.8 | 11.3 | 0.05 | 0.64 | 0.64 | 94 | 1013.5 |
| 20260509025505 | 18 | 143 | 6.4 | 8.0 | 0.05 | 0.64 | 0.64 | 94 | 1013.6 |
| 20260509025403 | 18 | 148 | 3.2 | 6.4 | 0.05 | 0.64 | 0.64 | 94 | 1013.8 |
| 20260509025306 | 18 | 66 | 4.8 | 6.4 | 0.05 | 0.64 | 0.64 | 94 | 1013.9 |
| 20260509025006 | 18 | 188 | 4.8 | 6.4 | 0.05 | 0.64 | 0.64 | 94 | 1014.1 |
| 20260509024903 | 18 | 179 | 4.8 | 4.8 | 0.05 | 0.64 | 0.64 | 94 | 1014.0 |
| 20260509024804 | 18 | 206 | 3.2 | 4.8 | 0.03 | 0.61 | 0.61 | 94 | 1013.9 |
| 20260509024704 | 18 | 184 | 0.0 | 4.8 | 0.03 | 0.61 | 0.61 | 94 | 1013.9 |